Time,TemperatureF,DewpointF,PressureIn,WindDirection,WindDirectionDegrees,WindSpeedMPH,WindSpeedGustMPH,Humidity,HourlyPrecipIn,Conditions,Clouds,dailyrainin,SoftwareType,DateUTC
2013-03-03 00:00:00,22.6,16.8,30.17,NW,319,0.0,0.0,78,0.00,,CLR,0.00,VWS V14.01,2013-03-03 06:00:00,
2013-03-03 00:01:00,22.6,16.8,30.17,NW,319,0.0,0.0,78,0.00,,CLR,0.00,VWS V14.01,2013-03-03 06:01:00,
2013-03-03 00:02:00,22.6,16.8,30.17,NW,319,0.0,0.0,78,0.00,,CLR,0.00,VWS V14.01,2013-03-03 06:02:00,
2013-03-03 00:06:00,22.4,16.6,30.17,NW,319,0.0,0.0,78,0.00,,CLR,0.00,VWS V14.01,2013-03-03 06:06:00,
2013-03-03 00:07:00,22.3,16.5,30.17,NW,319,0.0,0.0,78,0.00,,CLR,0.00,VWS V14.01,2013-03-03 06:07:00,
2013-03-03 00:11:00,22.3,16.5,30.17,NW,319,0.0,0.0,78,0.00,,CLR,0.00,VWS V14.01,2013-03-03 06:11:00,
2013-03-03 00:12:00,22.3,16.5,30.17,NW,319,0.0,0.0,78,0.00,,CLR,0.00,VWS V14.01,2013-03-03 06:12:00,
2013-03-03 00:16:00,22.3,16.5,30.17,NW,319,0.0,1.0,78,0.00,,CLR,0.00,VWS V14.01,2013-03-03 06:16:00,
2013-03-03 00:17:00,22.3,16.5,30.17,NW,319,0.0,1.0,78,0.00,,CLR,0.00,VWS V14.01,2013-03-03 06:17:00,
2013-03-03 00:21:00,22.1,16.3,30.17,NW,319,0.0,1.0,78,0.00,,CLR,0.00,VWS V14.01,2013-03-03 06:21:00,
2013-03-03 00:22:00,22.1,16.3,30.17,NW,319,0.0,1.0,78,0.00,,CLR,0.00,VWS V14.01,2013-03-03 06:22:00,
2013-03-03 00:27:00,22.1,16.3,30.17,NW,319,0.0,1.0,78,0.00,,CLR,0.00,VWS V14.01,2013-03-03 06:27:00,
2013-03-03 00:30:00,21.2,16.0,30.18,NW,319,0.0,0.0,80,0.00,,OVC041,0.00,VWS V14.01,2013-03-03 06:30:00,
2013-03-03 00:32:00,21.8,16.3,30.17,NW,319,0.0,0.0,79,0.00,,CLR,0.00,VWS V14.01,2013-03-03 06:32:00,
2013-03-03 00:37:00,21.8,16.3,30.17,NW,319,0.0,0.0,79,0.00,,CLR,0.00,VWS V14.01,2013-03-03 06:37:00,
2013-03-03 00:38:00,21.8,16.3,30.17,NW,319,0.0,0.0,79,0.00,,CLR,0.00,VWS V14.01,2013-03-03 06:38:00,
2013-03-03 00:42:00,21.7,16.2,30.17,NW,319,0.0,0.0,79,0.00,,CLR,0.00,VWS V14.01,2013-03-03 06:42:00,
2013-03-03 00:43:00,21.7,16.5,30.17,NW,319,0.0,0.0,80,0.00,,CLR,0.00,VWS V14.01,2013-03-03 06:43:00,
2013-03-03 00:47:00,21.7,16.5,30.17,NW,319,0.0,0.0,80,0.00,,CLR,0.00,VWS V14.01,2013-03-03 06:47:00,
2013-03-03 00:48:00,21.7,16.5,30.17,NW,319,0.0,0.0,80,0.00,,CLR,0.00,VWS V14.01,2013-03-03 06:48:00,
2013-03-03 00:52:00,21.5,16.3,30.17,NW,319,0.0,0.0,80,0.00,,CLR,0.00,VWS V14.01,2013-03-03 06:52:00,
2013-03-03 00:53:00,21.5,16.3,30.17,NW,319,0.0,0.0,80,0.00,,CLR,0.00,VWS V14.01,2013-03-03 06:53:00,
2013-03-03 00:57:00,21.5,16.3,30.17,NW,319,0.0,0.0,80,0.00,,CLR,0.00,VWS V14.01,2013-03-03 06:57:00,
2013-03-03 00:58:00,21.5,16.3,30.17,NW,319,0.0,0.0,80,0.00,,CLR,0.00,VWS V14.01,2013-03-03 06:58:00,
2013-03-03 01:00:00,20.1,15.2,30.17,NW,319,0.0,0.0,81,0.00,,OVC041,0.00,VWS V14.01,2013-03-03 07:00:00,
2013-03-03 01:02:00,21.5,16.3,30.17,NW,319,0.0,0.0,80,0.00,,CLR,0.00,VWS V14.01,2013-03-03 07:02:00,
2013-03-03 01:03:00,21.5,16.3,30.17,NW,319,0.0,0.0,80,0.00,,CLR,0.00,VWS V14.01,2013-03-03 07:03:00,
2013-03-03 01:07:00,21.5,16.3,30.17,NW,319,0.0,0.0,80,0.00,,CLR,0.00,VWS V14.01,2013-03-03 07:07:00,
2013-03-03 01:08:00,21.5,16.3,30.17,NW,319,0.0,0.0,80,0.00,,CLR,0.00,VWS V14.01,2013-03-03 07:08:00,
2013-03-03 01:13:00,21.5,16.3,30.17,NW,319,0.0,0.0,80,0.00,,CLR,0.00,VWS V14.01,2013-03-03 07:13:00,
2013-03-03 01:17:00,21.5,16.6,30.17,NW,319,0.0,0.0,81,0.00,,CLR,0.00,VWS V14.01,2013-03-03 07:17:00,
2013-03-03 01:18:00,21.5,16.6,30.17,NW,319,0.0,0.0,81,0.00,,CLR,0.00,VWS V14.01,2013-03-03 07:18:00,
2013-03-03 01:23:00,21.3,16.1,30.17,NW,319,0.0,0.0,80,0.00,,CLR,0.00,VWS V14.01,2013-03-03 07:23:00,
2013-03-03 01:24:00,21.3,16.1,30.17,NW,319,0.0,0.0,80,0.00,,CLR,0.00,VWS V14.01,2013-03-03 07:24:00,
2013-03-03 01:28:00,21.2,16.0,30.17,NW,319,0.0,0.0,80,0.00,,CLR,0.00,VWS V14.01,2013-03-03 07:28:00,
2013-03-03 01:29:00,21.2,16.0,30.18,NW,319,0.0,0.0,80,0.00,,CLR,0.00,VWS V14.01,2013-03-03 07:29:00,
2013-03-03 01:30:00,19.3,15.0,30.16,NW,319,0.0,0.0,83,0.00,,OVC041,0.00,VWS V14.01,2013-03-03 07:30:00,
2013-03-03 01:33:00,21.2,16.3,30.18,NW,319,0.0,0.0,81,0.00,,CLR,0.00,VWS V14.01,2013-03-03 07:33:00,
2013-03-03 01:34:00,21.0,16.1,30.18,NW,319,0.0,0.0,81,0.00,,CLR,0.00,VWS V14.01,2013-03-03 07:34:00,
2013-03-03 01:38:00,20.9,15.7,30.18,NW,319,0.0,0.0,80,0.00,,CLR,0.00,VWS V14.01,2013-03-03 07:38:00,
2013-03-03 01:39:00,20.9,15.7,30.18,NW,319,0.0,0.0,80,0.00,,CLR,0.00,VWS V14.01,2013-03-03 07:39:00,
2013-03-03 01:40:00,20.7,15.5,30.18,NW,319,0.0,0.0,80,0.00,,CLR,0.00,VWS V14.01,2013-03-03 07:40:00,
2013-03-03 01:43:00,20.5,15.3,30.18,NW,319,0.0,0.0,80,0.00,,CLR,0.00,VWS V14.01,2013-03-03 07:43:00,
2013-03-03 01:44:00,20.5,15.3,30.17,NW,319,0.0,0.0,80,0.00,,CLR,0.00,VWS V14.01,2013-03-03 07:44:00,
2013-03-03 01:45:00,20.5,15.6,30.17,NW,319,0.0,0.0,81,0.00,,CLR,0.00,VWS V14.01,2013-03-03 07:45:00,
2013-03-03 01:48:00,20.4,15.5,30.17,NW,319,0.0,0.0,81,0.00,,CLR,0.00,VWS V14.01,2013-03-03 07:48:00,
2013-03-03 01:49:00,20.4,15.5,30.17,NW,319,0.0,0.0,81,0.00,,CLR,0.00,VWS V14.01,2013-03-03 07:49:00,
2013-03-03 01:50:00,20.4,15.5,30.17,NW,319,0.0,0.0,81,0.00,,CLR,0.00,VWS V14.01,2013-03-03 07:50:00,
2013-03-03 01:53:00,20.2,15.3,30.17,NW,319,0.0,0.0,81,0.00,,CLR,0.00,VWS V14.01,2013-03-03 07:53:00,
2013-03-03 01:54:00,20.2,15.3,30.17,NW,319,0.0,0.0,81,0.00,,CLR,0.00,VWS V14.01,2013-03-03 07:54:00,
2013-03-03 01:56:00,20.2,15.3,30.17,NW,319,0.0,0.0,81,0.00,,CLR,0.00,VWS V14.01,2013-03-03 07:56:00,
2013-03-03 01:58:00,20.1,15.2,30.17,NW,319,0.0,0.0,81,0.00,,CLR,0.00,VWS V14.01,2013-03-03 07:58:00,
2013-03-03 01:59:00,20.1,15.2,30.17,NW,319,0.0,0.0,81,0.00,,CLR,0.00,VWS V14.01,2013-03-03 07:59:00,
2013-03-03 02:00:00,18.3,14.3,30.15,NW,319,0.0,0.0,84,0.00,,OVC041,0.00,VWS V14.01,2013-03-03 08:00:00,
2013-03-03 02:01:00,20.1,15.2,30.17,NW,319,0.0,0.0,81,0.00,,CLR,0.00,VWS V14.01,2013-03-03 08:01:00,
2013-03-03 02:04:00,19.9,15.0,30.17,NW,319,0.0,0.0,81,0.00,,CLR,0.00,VWS V14.01,2013-03-03 08:04:00,
2013-03-03 02:06:00,19.8,14.9,30.17,NW,319,0.0,0.0,81,0.00,,CLR,0.00,VWS V14.01,2013-03-03 08:06:00,
2013-03-03 02:09:00,19.8,14.9,30.17,NW,319,0.0,0.0,81,0.00,,CLR,0.00,VWS V14.01,2013-03-03 08:09:00,
2013-03-03 02:12:00,19.6,15.0,30.17,NW,319,0.0,0.0,82,0.00,,CLR,0.00,VWS V14.01,2013-03-03 08:12:00,
2013-03-03 02:14:00,19.6,15.0,30.16,NW,319,0.0,0.0,82,0.00,,CLR,0.00,VWS V14.01,2013-03-03 08:14:00,
2013-03-03 02:17:00,19.4,14.8,30.16,NW,319,0.0,0.0,82,0.00,,CLR,0.00,VWS V14.01,2013-03-03 08:17:00,
2013-03-03 02:19:00,19.4,14.8,30.16,NW,319,0.0,0.0,82,0.00,,CLR,0.00,VWS V14.01,2013-03-03 08:19:00,
2013-03-03 02:20:00,19.4,14.8,30.16,NW,319,0.0,0.0,82,0.00,,CLR,0.00,VWS V14.01,2013-03-03 08:20:00,
2013-03-03 02:22:00,19.4,14.8,30.16,NW,319,0.0,0.0,82,0.00,,CLR,0.00,VWS V14.01,2013-03-03 08:22:00,
2013-03-03 02:24:00,19.3,14.7,30.16,NW,319,0.0,0.0,82,0.00,,CLR,0.00,VWS V14.01,2013-03-03 08:24:00,
2013-03-03 02:25:00,19.3,14.7,30.16,NW,319,0.0,0.0,82,0.00,,CLR,0.00,VWS V14.01,2013-03-03 08:25:00,
2013-03-03 02:27:00,19.3,15.0,30.16,NW,319,0.0,0.0,83,0.00,,CLR,0.00,VWS V14.01,2013-03-03 08:27:00,
2013-03-03 02:29:00,19.3,15.0,30.16,NW,319,0.0,0.0,83,0.00,,CLR,0.00,VWS V14.01,2013-03-03 08:29:00,
2013-03-03 02:30:00,19.3,15.0,30.16,NW,319,0.0,0.0,83,0.00,,CLR,0.00,VWS V14.01,2013-03-03 08:30:00,
2013-03-03 02:32:00,19.4,15.1,30.16,NW,319,0.0,0.0,83,0.00,,CLR,0.00,VWS V14.01,2013-03-03 08:32:00,
2013-03-03 02:35:00,19.3,15.0,30.16,NW,319,0.0,0.0,83,0.00,,CLR,0.00,VWS V14.01,2013-03-03 08:35:00,
2013-03-03 02:37:00,19.3,15.0,30.16,NW,319,0.0,0.0,83,0.00,,CLR,0.00,VWS V14.01,2013-03-03 08:37:00,
2013-03-03 02:40:00,19.1,14.8,30.16,NW,319,0.0,0.0,83,0.00,,CLR,0.00,VWS V14.01,2013-03-03 08:40:00,
2013-03-03 02:41:00,19.1,14.8,30.16,NW,319,0.0,0.0,83,0.00,,CLR,0.00,VWS V14.01,2013-03-03 08:41:00,
2013-03-03 02:42:00,19.1,14.8,30.16,NW,319,0.0,0.0,83,0.00,,CLR,0.00,VWS V14.01,2013-03-03 08:42:00,
2013-03-03 02:45:00,19.0,14.7,30.15,NW,319,0.0,0.0,83,0.00,,CLR,0.00,VWS V14.01,2013-03-03 08:45:00,
2013-03-03 02:46:00,19.0,14.7,30.15,NW,319,0.0,0.0,83,0.00,,CLR,0.00,VWS V14.01,2013-03-03 08:46:00,
2013-03-03 02:47:00,19.0,14.7,30.15,NW,319,0.0,0.0,83,0.00,,CLR,0.00,VWS V14.01,2013-03-03 08:47:00,
2013-03-03 02:50:00,18.8,14.5,30.15,NW,319,0.0,0.0,83,0.00,,CLR,0.00,VWS V14.01,2013-03-03 08:50:00,
2013-03-03 02:51:00,18.8,14.5,30.15,NW,319,0.0,0.0,83,0.00,,CLR,0.00,VWS V14.01,2013-03-03 08:51:00,
2013-03-03 02:53:00,18.7,14.4,30.15,NW,319,0.0,0.0,83,0.00,,CLR,0.00,VWS V14.01,2013-03-03 08:53:00,
2013-03-03 02:55:00,18.5,14.2,30.15,NW,319,0.0,0.0,83,0.00,,CLR,0.00,VWS V14.01,2013-03-03 08:55:00,
2013-03-03 02:56:00,18.5,14.5,30.15,NW,319,0.0,0.0,84,0.00,,CLR,0.00,VWS V14.01,2013-03-03 08:56:00,
2013-03-03 02:58:00,18.5,14.5,30.15,NW,319,0.0,0.0,84,0.00,,CLR,0.00,VWS V14.01,2013-03-03 08:58:00,
2013-03-03 03:00:00,18.3,14.3,30.15,NW,319,0.0,0.0,84,0.00,,CLR,0.00,VWS V14.01,2013-03-03 09:00:00,
2013-03-03 03:01:00,18.3,14.3,30.15,NW,319,0.0,0.0,84,0.00,,CLR,0.00,VWS V14.01,2013-03-03 09:01:00,
2013-03-03 03:03:00,18.2,14.2,30.15,NW,319,0.0,0.0,84,0.00,,CLR,0.00,VWS V14.01,2013-03-03 09:03:00,
2013-03-03 03:06:00,18.2,14.2,30.15,NW,319,0.0,0.0,84,0.00,,CLR,0.00,VWS V14.01,2013-03-03 09:06:00,
2013-03-03 03:08:00,18.0,14.0,30.15,NW,319,0.0,0.0,84,0.00,,CLR,0.00,VWS V14.01,2013-03-03 09:08:00,
2013-03-03 03:11:00,17.9,13.9,30.15,NW,319,0.0,0.0,84,0.00,,CLR,0.00,VWS V14.01,2013-03-03 09:11:00,
2013-03-03 03:13:00,17.9,13.9,30.15,NW,319,0.0,0.0,84,0.00,,CLR,0.00,VWS V14.01,2013-03-03 09:13:00,
2013-03-03 03:16:00,17.9,13.9,30.15,NW,319,0.0,0.0,84,0.00,,CLR,0.00,VWS V14.01,2013-03-03 09:16:00,
2013-03-03 03:17:00,17.9,13.9,30.15,NW,319,0.0,0.0,84,0.00,,CLR,0.00,VWS V14.01,2013-03-03 09:17:00,
2013-03-03 03:18:00,17.9,13.9,30.15,NW,319,0.0,0.0,84,0.00,,CLR,0.00,VWS V14.01,2013-03-03 09:18:00,
2013-03-03 03:21:00,17.9,14.2,30.15,NW,319,0.0,0.0,85,0.00,,CLR,0.00,VWS V14.01,2013-03-03 09:21:00,
2013-03-03 03:22:00,17.9,14.2,30.15,NW,319,0.0,0.0,85,0.00,,CLR,0.00,VWS V14.01,2013-03-03 09:22:00,
2013-03-03 03:23:00,17.9,13.9,30.15,NW,319,0.0,0.0,84,0.00,,CLR,0.00,VWS V14.01,2013-03-03 09:23:00,
2013-03-03 03:27:00,17.7,14.0,30.15,NW,319,0.0,0.0,85,0.00,,CLR,0.00,VWS V14.01,2013-03-03 09:27:00,
2013-03-03 03:28:00,17.7,14.0,30.15,NW,319,0.0,0.0,85,0.00,,CLR,0.00,VWS V14.01,2013-03-03 09:28:00,
2013-03-03 03:30:00,17.2,13.7,30.14,NW,319,0.0,0.0,86,0.00,,OVC041,0.00,VWS V14.01,2013-03-03 09:30:00,
2013-03-03 03:32:00,17.7,14.0,30.15,NW,319,0.0,0.0,85,0.00,,CLR,0.00,VWS V14.01,2013-03-03 09:32:00,
2013-03-03 03:33:00,17.6,13.9,30.15,NW,319,0.0,0.0,85,0.00,,CLR,0.00,VWS V14.01,2013-03-03 09:33:00,
2013-03-03 03:37:00,17.6,13.9,30.15,NW,319,0.0,0.0,85,0.00,,CLR,0.00,VWS V14.01,2013-03-03 09:37:00,
2013-03-03 03:38:00,17.6,13.9,30.15,NW,319,0.0,0.0,85,0.00,,CLR,0.00,VWS V14.01,2013-03-03 09:38:00,
2013-03-03 03:42:00,17.4,13.7,30.15,NW,319,0.0,0.0,85,0.00,,CLR,0.00,VWS V14.01,2013-03-03 09:42:00,
2013-03-03 03:43:00,17.4,13.7,30.15,NW,319,0.0,0.0,85,0.00,,CLR,0.00,VWS V14.01,2013-03-03 09:43:00,
2013-03-03 03:47:00,17.4,13.7,30.15,NW,319,0.0,0.0,85,0.00,,CLR,0.00,VWS V14.01,2013-03-03 09:47:00,
2013-03-03 03:48:00,17.4,13.7,30.15,NW,319,0.0,0.0,85,0.00,,CLR,0.00,VWS V14.01,2013-03-03 09:48:00,
2013-03-03 03:52:00,17.4,13.7,30.15,NW,319,0.0,0.0,85,0.00,,CLR,0.00,VWS V14.01,2013-03-03 09:52:00,
2013-03-03 03:53:00,17.4,13.7,30.15,NW,319,0.0,0.0,85,0.00,,CLR,0.00,VWS V14.01,2013-03-03 09:53:00,
2013-03-03 03:54:00,17.4,13.7,30.15,NW,319,0.0,0.0,85,0.00,,CLR,0.00,VWS V14.01,2013-03-03 09:54:00,
2013-03-03 03:58:00,17.4,13.9,30.15,NW,319,0.0,0.0,86,0.00,,CLR,0.00,VWS V14.01,2013-03-03 09:58:00,
2013-03-03 03:59:00,17.4,13.9,30.14,NW,319,0.0,0.0,86,0.00,,CLR,0.00,VWS V14.01,2013-03-03 09:59:00,
2013-03-03 04:00:00,16.8,13.4,30.14,NW,319,0.0,0.0,86,0.00,,OVC041,0.00,VWS V14.01,2013-03-03 10:00:00,
2013-03-03 04:03:00,17.4,13.9,30.14,NW,319,0.0,0.0,86,0.00,,CLR,0.00,VWS V14.01,2013-03-03 10:03:00,
2013-03-03 04:04:00,17.4,13.9,30.14,NW,319,0.0,0.0,86,0.00,,CLR,0.00,VWS V14.01,2013-03-03 10:04:00,
2013-03-03 04:08:00,17.4,13.9,30.14,NW,319,0.0,0.0,86,0.00,,CLR,0.00,VWS V14.01,2013-03-03 10:08:00,
2013-03-03 04:09:00,17.4,13.9,30.14,NW,319,0.0,0.0,86,0.00,,CLR,0.00,VWS V14.01,2013-03-03 10:09:00,
2013-03-03 04:13:00,17.4,13.9,30.14,NW,319,0.0,0.0,86,0.00,,CLR,0.00,VWS V14.01,2013-03-03 10:13:00,
2013-03-03 04:14:00,17.4,13.9,30.14,NW,319,0.0,0.0,86,0.00,,CLR,0.00,VWS V14.01,2013-03-03 10:14:00,
2013-03-03 04:18:00,17.6,14.1,30.14,NW,319,0.0,0.0,86,0.00,,CLR,0.00,VWS V14.01,2013-03-03 10:18:00,
2013-03-03 04:19:00,17.6,14.1,30.14,NW,319,0.0,0.0,86,0.00,,CLR,0.00,VWS V14.01,2013-03-03 10:19:00,
2013-03-03 04:23:00,17.4,13.9,30.14,NW,319,0.0,0.0,86,0.00,,CLR,0.00,VWS V14.01,2013-03-03 10:23:00,
2013-03-03 04:24:00,17.4,13.9,30.14,NW,319,0.0,0.0,86,0.00,,CLR,0.00,VWS V14.01,2013-03-03 10:24:00,
2013-03-03 04:28:00,17.2,13.7,30.14,NW,319,0.0,0.0,86,0.00,,CLR,0.00,VWS V14.01,2013-03-03 10:28:00,
2013-03-03 04:29:00,17.2,13.7,30.14,NW,319,0.0,0.0,86,0.00,,CLR,0.00,VWS V14.01,2013-03-03 10:29:00,
2013-03-03 04:30:00,16.4,12.9,30.15,NW,319,0.0,0.0,86,0.00,,OVC041,0.00,VWS V14.01,2013-03-03 10:30:00,
2013-03-03 04:33:00,17.1,13.6,30.14,NW,319,0.0,0.0,86,0.00,,CLR,0.00,VWS V14.01,2013-03-03 10:33:00,
2013-03-03 04:34:00,17.1,13.6,30.14,NW,319,0.0,0.0,86,0.00,,CLR,0.00,VWS V14.01,2013-03-03 10:34:00,
2013-03-03 04:38:00,17.1,13.6,30.14,NW,319,0.0,0.0,86,0.00,,CLR,0.00,VWS V14.01,2013-03-03 10:38:00,
2013-03-03 04:39:00,17.1,13.6,30.14,NW,319,0.0,0.0,86,0.00,,CLR,0.00,VWS V14.01,2013-03-03 10:39:00,
2013-03-03 04:44:00,16.9,13.4,30.14,NW,319,0.0,0.0,86,0.00,,CLR,0.00,VWS V14.01,2013-03-03 10:44:00,
2013-03-03 04:45:00,16.9,13.4,30.13,NW,319,0.0,0.0,86,0.00,,CLR,0.00,VWS V14.01,2013-03-03 10:45:00,
2013-03-03 04:49:00,16.9,13.4,30.13,NW,319,0.0,0.0,86,0.00,,CLR,0.00,VWS V14.01,2013-03-03 10:49:00,
2013-03-03 04:50:00,16.9,13.4,30.13,NW,319,0.0,0.0,86,0.00,,CLR,0.00,VWS V14.01,2013-03-03 10:50:00,
2013-03-03 04:54:00,16.8,13.4,30.13,NW,319,0.0,0.0,86,0.00,,CLR,0.00,VWS V14.01,2013-03-03 10:54:00,
2013-03-03 04:56:00,16.8,13.4,30.13,NW,319,0.0,0.0,86,0.00,,CLR,0.00,VWS V14.01,2013-03-03 10:56:00,
2013-03-03 04:59:00,16.8,13.4,30.14,NW,319,0.0,0.0,86,0.00,,CLR,0.00,VWS V14.01,2013-03-03 10:59:00,
2013-03-03 05:00:00,16.3,12.9,30.15,NW,319,0.0,0.0,86,0.00,,OVC041,0.00,VWS V14.01,2013-03-03 11:00:00,
2013-03-03 05:01:00,16.8,13.4,30.14,NW,319,0.0,0.0,86,0.00,,CLR,0.00,VWS V14.01,2013-03-03 11:01:00,
2013-03-03 05:04:00,16.6,13.1,30.14,NW,319,0.0,0.0,86,0.00,,CLR,0.00,VWS V14.01,2013-03-03 11:04:00,
2013-03-03 05:05:00,16.6,13.1,30.14,NW,319,0.0,0.0,86,0.00,,CLR,0.00,VWS V14.01,2013-03-03 11:05:00,
2013-03-03 05:06:00,16.6,13.1,30.14,NW,319,0.0,0.0,86,0.00,,CLR,0.00,VWS V14.01,2013-03-03 11:06:00,
2013-03-03 05:09:00,16.4,12.9,30.14,NW,319,0.0,0.0,86,0.00,,CLR,0.00,VWS V14.01,2013-03-03 11:09:00,
2013-03-03 05:10:00,16.4,12.9,30.14,NW,319,0.0,0.0,86,0.00,,CLR,0.00,VWS V14.01,2013-03-03 11:10:00,
2013-03-03 05:11:00,16.4,12.9,30.14,NW,319,0.0,0.0,86,0.00,,CLR,0.00,VWS V14.01,2013-03-03 11:11:00,
2013-03-03 05:14:00,16.4,12.9,30.15,NW,319,0.0,0.0,86,0.00,,CLR,0.00,VWS V14.01,2013-03-03 11:14:00,
2013-03-03 05:15:00,16.4,12.9,30.15,NW,319,0.0,0.0,86,0.00,,CLR,0.00,VWS V14.01,2013-03-03 11:15:00,
2013-03-03 05:16:00,16.4,12.9,30.15,NW,319,0.0,0.0,86,0.00,,CLR,0.00,VWS V14.01,2013-03-03 11:16:00,
2013-03-03 05:19:00,16.3,12.9,30.15,NW,319,0.0,0.0,86,0.00,,CLR,0.00,VWS V14.01,2013-03-03 11:19:00,
2013-03-03 05:20:00,16.3,12.9,30.15,NW,319,0.0,0.0,86,0.00,,CLR,0.00,VWS V14.01,2013-03-03 11:20:00,
2013-03-03 05:21:00,16.3,12.9,30.15,NW,319,0.0,0.0,86,0.00,,CLR,0.00,VWS V14.01,2013-03-03 11:21:00,
2013-03-03 05:24:00,16.3,12.9,30.15,NW,319,0.0,0.0,86,0.00,,CLR,0.00,VWS V14.01,2013-03-03 11:24:00,
2013-03-03 05:25:00,16.3,12.9,30.15,NW,319,0.0,0.0,86,0.00,,CLR,0.00,VWS V14.01,2013-03-03 11:25:00,
2013-03-03 05:26:00,16.3,12.9,30.15,NW,319,0.0,0.0,86,0.00,,CLR,0.00,VWS V14.01,2013-03-03 11:26:00,
2013-03-03 05:29:00,16.4,12.9,30.15,NW,319,0.0,0.0,86,0.00,,CLR,0.00,VWS V14.01,2013-03-03 11:29:00,
2013-03-03 05:30:00,16.4,12.9,30.15,NW,319,0.0,0.0,86,0.00,,CLR,0.00,VWS V14.01,2013-03-03 11:30:00,
2013-03-03 05:31:00,16.4,13.2,30.15,NW,319,0.0,0.0,87,0.00,,CLR,0.00,VWS V14.01,2013-03-03 11:31:00,
2013-03-03 05:34:00,16.4,13.2,30.15,NW,319,0.0,0.0,87,0.00,,CLR,0.00,VWS V14.01,2013-03-03 11:34:00,
2013-03-03 05:35:00,16.4,13.2,30.15,NW,319,0.0,0.0,87,0.00,,CLR,0.00,VWS V14.01,2013-03-03 11:35:00,
2013-03-03 05:36:00,16.4,12.9,30.15,NW,319,0.0,0.0,86,0.00,,CLR,0.00,VWS V14.01,2013-03-03 11:36:00,
2013-03-03 05:40:00,16.4,12.9,30.15,NW,319,0.0,0.0,86,0.00,,CLR,0.00,VWS V14.01,2013-03-03 11:40:00,
2013-03-03 05:41:00,16.4,12.9,30.15,NW,319,0.0,0.0,86,0.00,,CLR,0.00,VWS V14.01,2013-03-03 11:41:00,
2013-03-03 05:45:00,16.4,12.9,30.15,NW,319,0.0,0.0,86,0.00,,CLR,0.00,VWS V14.01,2013-03-03 11:45:00,
2013-03-03 05:46:00,16.3,12.9,30.15,NW,319,0.0,0.0,86,0.00,,CLR,0.00,VWS V14.01,2013-03-03 11:46:00,
2013-03-03 05:50:00,16.3,12.9,30.15,NW,319,0.0,0.0,86,0.00,,CLR,0.00,VWS V14.01,2013-03-03 11:50:00,
2013-03-03 05:51:00,16.3,12.9,30.15,NW,319,0.0,0.0,86,0.00,,CLR,0.00,VWS V14.01,2013-03-03 11:51:00,
2013-03-03 05:52:00,16.3,12.9,30.15,NW,319,0.0,0.0,86,0.00,,CLR,0.00,VWS V14.01,2013-03-03 11:52:00,
2013-03-03 05:56:00,16.3,12.9,30.15,NW,319,0.0,0.0,86,0.00,,CLR,0.00,VWS V14.01,2013-03-03 11:56:00,
2013-03-03 05:57:00,16.3,13.1,30.15,NW,319,0.0,0.0,87,0.00,,CLR,0.00,VWS V14.01,2013-03-03 11:57:00,
2013-03-03 06:00:00,16.3,13.1,30.17,NW,319,0.0,0.0,87,0.00,,OVC041,0.00,VWS V14.01,2013-03-03 12:00:00,
2013-03-03 06:01:00,16.3,12.9,30.15,NW,319,0.0,0.0,86,0.00,,CLR,0.00,VWS V14.01,2013-03-03 12:01:00,
2013-03-03 06:02:00,16.3,12.9,30.15,NW,319,0.0,0.0,86,0.00,,CLR,0.00,VWS V14.01,2013-03-03 12:02:00,
2013-03-03 06:06:00,16.1,12.7,30.15,NW,319,0.0,0.0,86,0.00,,CLR,0.00,VWS V14.01,2013-03-03 12:06:00,
2013-03-03 06:07:00,16.1,12.7,30.15,NW,319,0.0,0.0,86,0.00,,CLR,0.00,VWS V14.01,2013-03-03 12:07:00,
2013-03-03 06:11:00,16.1,12.7,30.15,NW,319,0.0,0.0,86,0.00,,CLR,0.00,VWS V14.01,2013-03-03 12:11:00,
2013-03-03 06:12:00,16.1,12.9,30.15,NW,319,0.0,0.0,87,0.00,,CLR,0.00,VWS V14.01,2013-03-03 12:12:00,
2013-03-03 06:16:00,16.3,13.1,30.16,NW,319,0.0,0.0,87,0.00,,CLR,0.00,VWS V14.01,2013-03-03 12:16:00,
2013-03-03 06:17:00,16.3,13.1,30.16,NW,319,0.0,0.0,87,0.00,,CLR,0.00,VWS V14.01,2013-03-03 12:17:00,
2013-03-03 06:21:00,16.3,13.1,30.16,NW,319,0.0,0.0,87,0.00,,CLR,0.00,VWS V14.01,2013-03-03 12:21:00,
2013-03-03 06:22:00,16.3,12.9,30.16,NW,319,0.0,0.0,86,0.00,,CLR,0.00,VWS V14.01,2013-03-03 12:22:00,
2013-03-03 06:26:00,16.1,12.7,30.16,NW,319,0.0,0.0,86,0.00,,CLR,0.00,VWS V14.01,2013-03-03 12:26:00,
2013-03-03 06:27:00,16.1,12.7,30.16,NW,319,0.0,0.0,86,0.00,,CLR,0.00,VWS V14.01,2013-03-03 12:27:00,
2013-03-03 06:30:00,19.1,16.1,30.16,NW,319,0.0,0.0,88,0.00,,OVC041,0.00,VWS V14.01,2013-03-03 12:30:00,
2013-03-03 06:31:00,16.0,12.6,30.16,NW,319,0.0,0.0,86,0.00,,CLR,0.00,VWS V14.01,2013-03-03 12:31:00,
2013-03-03 06:32:00,16.0,12.8,30.16,NW,319,0.0,0.0,87,0.00,,CLR,0.00,VWS V14.01,2013-03-03 12:32:00,
2013-03-03 06:36:00,16.0,12.8,30.16,NW,319,0.0,0.0,87,0.00,,CLR,0.00,VWS V14.01,2013-03-03 12:36:00,
2013-03-03 06:37:00,16.0,12.8,30.16,NW,319,0.0,0.0,87,0.00,,CLR,0.00,VWS V14.01,2013-03-03 12:37:00,
2013-03-03 06:41:00,16.0,12.8,30.16,NW,319,0.0,0.0,87,0.00,,CLR,0.00,VWS V14.01,2013-03-03 12:41:00,
2013-03-03 06:42:00,16.1,12.9,30.16,NW,319,0.0,0.0,87,0.00,,CLR,0.00,VWS V14.01,2013-03-03 12:42:00,
2013-03-03 06:43:00,16.1,12.9,30.16,NW,319,0.0,0.0,87,0.00,,CLR,0.00,VWS V14.01,2013-03-03 12:43:00,
2013-03-03 06:46:00,16.1,12.9,30.16,NW,319,0.0,0.0,87,0.00,,CLR,0.00,VWS V14.01,2013-03-03 12:46:00,
2013-03-03 06:47:00,16.1,12.9,30.16,NW,319,0.0,0.0,87,0.00,,CLR,0.00,VWS V14.01,2013-03-03 12:47:00,
2013-03-03 06:48:00,16.1,12.9,30.16,NW,319,0.0,0.0,87,0.00,,CLR,0.00,VWS V14.01,2013-03-03 12:48:00,
2013-03-03 06:51:00,16.1,12.9,30.16,NW,319,0.0,0.0,87,0.00,,CLR,0.00,VWS V14.01,2013-03-03 12:51:00,
2013-03-03 06:52:00,16.1,12.9,30.16,NW,319,0.0,0.0,87,0.00,,CLR,0.00,VWS V14.01,2013-03-03 12:52:00,
2013-03-03 06:53:00,16.1,12.9,30.16,NW,319,0.0,0.0,87,0.00,,CLR,0.00,VWS V14.01,2013-03-03 12:53:00,
2013-03-03 06:56:00,16.1,12.9,30.16,NW,319,0.0,0.0,87,0.00,,CLR,0.00,VWS V14.01,2013-03-03 12:56:00,
2013-03-03 06:57:00,16.1,12.9,30.16,NW,319,0.0,0.0,87,0.00,,CLR,0.00,VWS V14.01,2013-03-03 12:57:00,
2013-03-03 06:58:00,16.1,12.9,30.16,NW,319,0.0,0.0,87,0.00,,CLR,0.00,VWS V14.01,2013-03-03 12:58:00,
2013-03-03 07:00:00,21.7,18.4,30.16,NW,319,0.0,0.0,87,0.00,,OVC041,0.00,VWS V14.01,2013-03-03 13:00:00,
2013-03-03 07:01:00,16.3,13.1,30.17,NW,319,0.0,0.0,87,0.00,,CLR,0.00,VWS V14.01,2013-03-03 13:01:00,
2013-03-03 07:02:00,16.3,13.1,30.17,NW,319,0.0,0.0,87,0.00,,CLR,0.00,VWS V14.01,2013-03-03 13:02:00,
2013-03-03 07:03:00,16.3,13.1,30.17,NW,319,0.0,0.0,87,0.00,,CLR,0.00,VWS V14.01,2013-03-03 13:03:00,
2013-03-03 07:06:00,16.6,13.4,30.17,NW,319,0.0,0.0,87,0.00,,CLR,0.00,VWS V14.01,2013-03-03 13:06:00,
2013-03-03 07:07:00,16.6,13.4,30.17,NW,319,0.0,0.0,87,0.00,,CLR,0.00,VWS V14.01,2013-03-03 13:07:00,
2013-03-03 07:08:00,16.6,13.4,30.17,NW,319,0.0,0.0,87,0.00,,CLR,0.00,VWS V14.01,2013-03-03 13:08:00,
2013-03-03 07:11:00,16.9,14.0,30.17,NW,319,0.0,0.0,88,0.00,,CLR,0.00,VWS V14.01,2013-03-03 13:11:00,
2013-03-03 07:12:00,16.9,14.0,30.17,NW,319,0.0,0.0,88,0.00,,CLR,0.00,VWS V14.01,2013-03-03 13:12:00,
2013-03-03 07:13:00,17.1,14.2,30.17,NW,319,0.0,0.0,88,0.00,,CLR,0.00,VWS V14.01,2013-03-03 13:13:00,
2013-03-03 07:17:00,17.7,14.8,30.16,NW,319,0.0,0.0,88,0.00,,CLR,0.00,VWS V14.01,2013-03-03 13:17:00,
2013-03-03 07:18:00,17.9,14.9,30.16,NW,319,0.0,0.0,88,0.00,,CLR,0.00,VWS V14.01,2013-03-03 13:18:00,
2013-03-03 07:19:00,18.0,15.1,30.16,NW,319,0.0,0.0,88,0.00,,CLR,0.00,VWS V14.01,2013-03-03 13:19:00,
2013-03-03 07:22:00,18.3,15.4,30.16,NW,319,0.0,0.0,88,0.00,,CLR,0.00,VWS V14.01,2013-03-03 13:22:00,
2013-03-03 07:23:00,18.5,15.6,30.16,NW,319,0.0,0.0,88,0.00,,CLR,0.00,VWS V14.01,2013-03-03 13:23:00,
2013-03-03 07:24:00,18.5,15.6,30.16,NW,319,0.0,0.0,88,0.00,,CLR,0.00,VWS V14.01,2013-03-03 13:24:00,
2013-03-03 07:27:00,19.0,16.0,30.16,NW,319,0.0,0.0,88,0.00,,CLR,0.00,VWS V14.01,2013-03-03 13:27:00,
2013-03-03 07:28:00,19.1,16.1,30.16,NW,319,0.0,0.0,88,0.00,,CLR,0.00,VWS V14.01,2013-03-03 13:28:00,
2013-03-03 07:29:00,19.1,16.1,30.16,NW,319,0.0,0.0,88,0.00,,CLR,0.00,VWS V14.01,2013-03-03 13:29:00,
2013-03-03 07:30:00,23.8,18.2,30.15,NW,319,0.0,0.0,79,0.00,,OVC041,0.00,VWS V14.01,2013-03-03 13:30:00,
2013-03-03 07:32:00,19.4,16.4,30.16,NW,319,0.0,0.0,88,0.00,,CLR,0.00,VWS V14.01,2013-03-03 13:32:00,
2013-03-03 07:33:00,19.6,16.6,30.16,NW,319,0.0,0.0,88,0.00,,CLR,0.00,VWS V14.01,2013-03-03 13:33:00,
2013-03-03 07:34:00,19.6,16.6,30.16,NW,319,0.0,0.0,88,0.00,,CLR,0.00,VWS V14.01,2013-03-03 13:34:00,
2013-03-03 07:37:00,19.9,16.9,30.16,NW,319,0.0,0.0,88,0.00,,CLR,0.00,VWS V14.01,2013-03-03 13:37:00,
2013-03-03 07:38:00,20.1,17.1,30.16,NW,319,0.0,0.0,88,0.00,,CLR,0.00,VWS V14.01,2013-03-03 13:38:00,
2013-03-03 07:39:00,20.1,17.1,30.16,NW,319,0.0,0.0,88,0.00,,CLR,0.00,VWS V14.01,2013-03-03 13:39:00,
2013-03-03 07:43:00,20.5,17.5,30.16,NW,319,0.0,0.0,88,0.00,,CLR,0.00,VWS V14.01,2013-03-03 13:43:00,
2013-03-03 07:44:00,20.5,17.5,30.16,NW,319,0.0,0.0,88,0.00,,CLR,0.00,VWS V14.01,2013-03-03 13:44:00,
2013-03-03 07:45:00,20.7,17.7,30.16,NW,319,0.0,0.0,88,0.00,,CLR,0.00,VWS V14.01,2013-03-03 13:45:00,
2013-03-03 07:48:00,21.0,18.0,30.16,NW,319,0.0,0.0,88,0.00,,CLR,0.00,VWS V14.01,2013-03-03 13:48:00,
2013-03-03 07:50:00,21.2,18.2,30.16,NW,319,0.0,0.0,88,0.00,,CLR,0.00,VWS V14.01,2013-03-03 13:50:00,
2013-03-03 07:53:00,21.2,17.9,30.16,NW,319,0.0,0.0,87,0.00,,CLR,0.00,VWS V14.01,2013-03-03 13:53:00,
2013-03-03 07:54:00,21.3,18.0,30.16,NW,319,0.0,0.0,87,0.00,,CLR,0.00,VWS V14.01,2013-03-03 13:54:00,
2013-03-03 07:55:00,21.3,18.0,30.16,NW,319,0.0,0.0,87,0.00,,CLR,0.00,VWS V14.01,2013-03-03 13:55:00,
2013-03-03 07:58:00,21.5,18.2,30.16,NW,319,0.0,0.0,87,0.00,,CLR,0.00,VWS V14.01,2013-03-03 13:58:00,
2013-03-03 07:59:00,21.5,18.2,30.16,NW,319,0.0,0.0,87,0.00,,CLR,0.00,VWS V14.01,2013-03-03 13:59:00,
2013-03-03 08:00:00,21.7,18.4,30.16,NW,319,0.0,0.0,87,0.00,,CLR,0.00,VWS V14.01,2013-03-03 14:00:00,
2013-03-03 08:03:00,21.8,18.3,30.16,NW,319,0.0,0.0,86,0.00,,CLR,0.00,VWS V14.01,2013-03-03 14:03:00,
2013-03-03 08:04:00,21.8,18.3,30.16,NW,319,0.0,0.0,86,0.00,,CLR,0.00,VWS V14.01,2013-03-03 14:04:00,
2013-03-03 08:05:00,21.8,18.3,30.16,NW,319,0.0,0.0,86,0.00,,CLR,0.00,VWS V14.01,2013-03-03 14:05:00,
2013-03-03 08:06:00,21.8,18.0,30.16,NW,319,0.0,0.0,85,0.00,,CLR,0.00,VWS V14.01,2013-03-03 14:06:00,
2013-03-03 08:08:00,22.0,18.2,30.16,NW,319,0.0,0.0,85,0.00,,CLR,0.00,VWS V14.01,2013-03-03 14:08:00,
2013-03-03 08:09:00,22.0,18.2,30.16,NW,319,0.0,0.0,85,0.00,,CLR,0.00,VWS V14.01,2013-03-03 14:09:00,
2013-03-03 08:10:00,22.0,18.2,30.16,NW,319,0.0,0.0,85,0.00,,CLR,0.00,VWS V14.01,2013-03-03 14:10:00,
2013-03-03 08:11:00,22.1,18.0,30.16,NW,319,0.0,0.0,84,0.00,,CLR,0.00,VWS V14.01,2013-03-03 14:11:00,
2013-03-03 08:13:00,22.4,18.6,30.16,NW,319,0.0,0.0,85,0.00,,CLR,0.00,VWS V14.01,2013-03-03 14:13:00,
2013-03-03 08:14:00,22.4,18.3,30.16,NW,319,0.0,0.0,84,0.00,,CLR,0.00,VWS V14.01,2013-03-03 14:14:00,
2013-03-03 08:15:00,22.4,18.3,30.16,NW,319,0.0,0.0,84,0.00,,CLR,0.00,VWS V14.01,2013-03-03 14:15:00,
2013-03-03 08:16:00,22.6,18.5,30.16,NW,319,0.0,0.0,84,0.00,,CLR,0.00,VWS V14.01,2013-03-03 14:16:00,
2013-03-03 08:18:00,22.6,18.2,30.16,NW,319,0.0,0.0,83,0.00,,CLR,0.00,VWS V14.01,2013-03-03 14:18:00,
2013-03-03 08:19:00,22.6,18.2,30.16,NW,319,0.0,0.0,83,0.00,,CLR,0.00,VWS V14.01,2013-03-03 14:19:00,
2013-03-03 08:20:00,22.8,18.4,30.16,NW,319,0.0,0.0,83,0.00,,CLR,0.00,VWS V14.01,2013-03-03 14:20:00,
2013-03-03 08:21:00,23.1,18.7,30.16,NW,319,0.0,0.0,83,0.00,,CLR,0.00,VWS V14.01,2013-03-03 14:21:00,
2013-03-03 08:24:00,23.4,18.7,30.16,NW,319,0.0,0.0,82,0.00,,CLR,0.00,VWS V14.01,2013-03-03 14:24:00,
2013-03-03 08:25:00,23.5,18.5,30.16,NW,319,0.0,0.0,81,0.00,,CLR,0.00,VWS V14.01,2013-03-03 14:25:00,
2013-03-03 08:26:00,23.7,18.7,30.16,NW,319,0.0,0.0,81,0.00,,CLR,0.00,VWS V14.01,2013-03-03 14:26:00,
2013-03-03 08:29:00,23.7,18.5,30.16,NW,319,0.0,0.0,80,0.00,,CLR,0.00,VWS V14.01,2013-03-03 14:29:00,
2013-03-03 08:30:00,27.8,17.9,30.15,WNW,292,0.0,1.0,66,0.00,,OVC041,0.00,VWS V14.01,2013-03-03 14:30:00,
2013-03-03 08:31:00,23.8,18.2,30.15,NW,319,0.0,0.0,79,0.00,,CLR,0.00,VWS V14.01,2013-03-03 14:31:00,
2013-03-03 08:34:00,24.1,18.5,30.15,NW,319,0.0,0.0,79,0.00,,CLR,0.00,VWS V14.01,2013-03-03 14:34:00,
2013-03-03 08:36:00,24.3,18.4,30.15,NW,319,0.0,0.0,78,0.00,,CLR,0.00,VWS V14.01,2013-03-03 14:36:00,
2013-03-03 08:39:00,24.3,18.1,30.15,NW,319,0.0,0.0,77,0.00,,CLR,0.00,VWS V14.01,2013-03-03 14:39:00,
2013-03-03 08:41:00,24.4,17.9,30.15,NW,319,0.0,0.0,76,0.00,,CLR,0.00,VWS V14.01,2013-03-03 14:41:00,
2013-03-03 08:44:00,24.7,17.9,30.16,NW,319,0.0,0.0,75,0.00,,CLR,0.00,VWS V14.01,2013-03-03 14:44:00,
2013-03-03 08:46:00,25.0,17.9,30.16,NW,319,0.0,0.0,74,0.00,,CLR,0.00,VWS V14.01,2013-03-03 14:46:00,
2013-03-03 08:47:00,25.0,17.9,30.16,NW,319,0.0,0.0,74,0.00,,CLR,0.00,VWS V14.01,2013-03-03 14:47:00,
2013-03-03 08:49:00,25.3,17.9,30.16,NW,319,0.0,0.0,73,0.00,,CLR,0.00,VWS V14.01,2013-03-03 14:49:00,
2013-03-03 08:51:00,25.5,18.1,30.16,NW,319,0.0,1.0,73,0.00,,CLR,0.00,VWS V14.01,2013-03-03 14:51:00,
2013-03-03 08:52:00,25.6,17.8,30.16,NW,319,0.0,1.0,72,0.00,,CLR,0.00,VWS V14.01,2013-03-03 14:52:00,
2013-03-03 08:54:00,25.7,17.9,30.16,NW,319,0.0,1.0,72,0.00,,CLR,0.00,VWS V14.01,2013-03-03 14:54:00,
2013-03-03 08:56:00,25.9,17.5,30.16,NW,319,0.0,1.0,70,0.00,,CLR,0.00,VWS V14.01,2013-03-03 14:56:00,
2013-03-03 08:57:00,25.9,17.5,30.16,NW,319,0.0,1.0,70,0.00,,CLR,0.00,VWS V14.01,2013-03-03 14:57:00,
2013-03-03 08:59:00,26.2,17.8,30.16,NW,319,0.0,1.0,70,0.00,,CLR,0.00,VWS V14.01,2013-03-03 14:59:00,
2013-03-03 09:00:00,28.3,15.0,30.15,West,262,0.0,6.0,57,0.00,,OVC041,0.00,VWS V14.01,2013-03-03 15:00:00,
2013-03-03 09:01:00,26.5,17.7,30.16,NW,319,0.0,0.0,69,0.00,,CLR,0.00,VWS V14.01,2013-03-03 15:01:00,
2013-03-03 09:02:00,26.5,17.4,30.16,NW,319,0.0,0.0,68,0.00,,CLR,0.00,VWS V14.01,2013-03-03 15:02:00,
2013-03-03 09:04:00,26.8,18.0,30.16,NW,319,0.0,0.0,69,0.00,,CLR,0.00,VWS V14.01,2013-03-03 15:04:00,
2013-03-03 09:06:00,26.9,17.4,30.16,West,277,0.0,1.0,67,0.00,,CLR,0.00,VWS V14.01,2013-03-03 15:06:00,
2013-03-03 09:07:00,26.9,17.1,30.16,West,277,0.0,1.0,66,0.00,,CLR,0.00,VWS V14.01,2013-03-03 15:07:00,
2013-03-03 09:09:00,26.8,16.6,30.16,WNW,293,0.0,1.0,65,0.00,,CLR,0.00,VWS V14.01,2013-03-03 15:09:00,
2013-03-03 09:10:00,26.8,16.6,30.16,WNW,293,0.0,1.0,65,0.00,,CLR,0.00,VWS V14.01,2013-03-03 15:10:00,
2013-03-03 09:11:00,26.8,16.6,30.16,WNW,293,0.0,1.0,65,0.00,,CLR,0.00,VWS V14.01,2013-03-03 15:11:00,
2013-03-03 09:12:00,26.8,16.6,30.16,WNW,293,0.0,1.0,65,0.00,,CLR,0.00,VWS V14.01,2013-03-03 15:12:00,
2013-03-03 09:14:00,26.8,16.3,30.15,WNW,293,0.0,1.0,64,0.00,,CLR,0.00,VWS V14.01,2013-03-03 15:14:00,
2013-03-03 09:15:00,26.8,16.3,30.15,WNW,293,0.0,1.0,64,0.00,,CLR,0.00,VWS V14.01,2013-03-03 15:15:00,
2013-03-03 09:16:00,26.9,16.4,30.15,WNW,294,0.0,1.0,64,0.00,,CLR,0.00,VWS V14.01,2013-03-03 15:16:00,
2013-03-03 09:17:00,26.9,16.4,30.15,WNW,294,0.0,1.0,64,0.00,,CLR,0.00,VWS V14.01,2013-03-03 15:17:00,
2013-03-03 09:19:00,26.9,16.0,30.15,WNW,293,0.0,1.0,63,0.00,,CLR,0.00,VWS V14.01,2013-03-03 15:19:00,
2013-03-03 09:20:00,26.8,15.9,30.15,WNW,293,0.0,1.0,63,0.00,,CLR,0.00,VWS V14.01,2013-03-03 15:20:00,
2013-03-03 09:22:00,26.8,16.3,30.15,WNW,292,0.0,1.0,64,0.00,,CLR,0.00,VWS V14.01,2013-03-03 15:22:00,
2013-03-03 09:24:00,26.9,16.4,30.15,WNW,292,0.0,1.0,64,0.00,,CLR,0.00,VWS V14.01,2013-03-03 15:24:00,
2013-03-03 09:25:00,27.1,16.9,30.15,WNW,292,0.0,1.0,65,0.00,,CLR,0.00,VWS V14.01,2013-03-03 15:25:00,
2013-03-03 09:27:00,27.4,17.2,30.15,WNW,292,0.0,1.0,65,0.00,,CLR,0.00,VWS V14.01,2013-03-03 15:27:00,
2013-03-03 09:30:00,27.8,17.9,30.15,WNW,292,0.0,0.0,66,0.00,,CLR,0.00,VWS V14.01,2013-03-03 15:30:00,
2013-03-03 09:32:00,28.1,16.8,30.15,WNW,286,2.0,4.0,62,0.00,,CLR,0.00,VWS V14.01,2013-03-03 15:32:00,
2013-03-03 09:33:00,28.1,16.8,30.15,WNW,287,0.0,4.0,62,0.00,,CLR,0.00,VWS V14.01,2013-03-03 15:33:00,
2013-03-03 09:35:00,27.8,16.5,30.15,WNW,296,0.0,4.0,62,0.00,,CLR,0.00,VWS V14.01,2013-03-03 15:35:00,
2013-03-03 09:38:00,27.8,15.7,30.15,WNW,293,0.0,4.0,60,0.00,,CLR,0.00,VWS V14.01,2013-03-03 15:38:00,
2013-03-03 09:40:00,27.7,14.9,30.15,NW,322,0.0,5.0,58,0.00,,CLR,0.00,VWS V14.01,2013-03-03 15:40:00,
2013-03-03 09:43:00,28.0,15.9,30.15,NW,315,2.0,5.0,60,0.00,,CLR,0.00,VWS V14.01,2013-03-03 15:43:00,
2013-03-03 09:45:00,28.0,15.5,30.15,WNW,286,0.0,5.0,59,0.00,,CLR,0.00,VWS V14.01,2013-03-03 15:45:00,
2013-03-03 09:48:00,28.0,15.5,30.15,WNW,284,0.0,5.0,59,0.00,,CLR,0.00,VWS V14.01,2013-03-03 15:48:00,
2013-03-03 09:50:00,28.1,15.6,30.15,WNW,284,0.0,5.0,59,0.00,,CLR,0.00,VWS V14.01,2013-03-03 15:50:00,
2013-03-03 09:51:00,28.1,16.0,30.15,WNW,284,0.0,5.0,60,0.00,,CLR,0.00,VWS V14.01,2013-03-03 15:51:00,
2013-03-03 09:53:00,28.1,15.2,30.15,WNW,287,0.0,6.0,58,0.00,,CLR,0.00,VWS V14.01,2013-03-03 15:53:00,
2013-03-03 09:55:00,28.1,14.8,30.15,WSW,254,0.0,6.0,57,0.00,,CLR,0.00,VWS V14.01,2013-03-03 15:55:00,
2013-03-03 09:56:00,28.1,15.2,30.15,West,259,2.0,6.0,58,0.00,,CLR,0.00,VWS V14.01,2013-03-03 15:56:00,
2013-03-03 09:58:00,28.3,15.4,30.15,West,261,0.0,6.0,58,0.00,,CLR,0.00,VWS V14.01,2013-03-03 15:58:00,
2013-03-03 09:59:00,28.1,14.4,30.15,West,262,0.0,6.0,56,0.00,,CLR,0.00,VWS V14.01,2013-03-03 15:59:00,
2013-03-03 10:00:00,28.3,15.0,30.15,West,262,0.0,0.0,57,0.00,,CLR,0.00,VWS V14.01,2013-03-03 16:00:00,
2013-03-03 10:01:00,28.4,14.7,30.15,West,262,0.0,0.0,56,0.00,,CLR,0.00,VWS V14.01,2013-03-03 16:01:00,
2013-03-03 10:03:00,28.7,14.6,30.15,West,262,0.0,0.0,55,0.00,,CLR,0.00,VWS V14.01,2013-03-03 16:03:00,
2013-03-03 10:04:00,28.9,15.2,30.15,West,262,0.0,0.0,56,0.00,,CLR,0.00,VWS V14.01,2013-03-03 16:04:00,
2013-03-03 10:05:00,29.0,14.9,30.15,West,260,0.0,0.0,55,0.00,,CLR,0.00,VWS V14.01,2013-03-03 16:05:00,
2013-03-03 10:06:00,29.2,15.1,30.15,West,260,0.0,0.0,55,0.00,,CLR,0.00,VWS V14.01,2013-03-03 16:06:00,
2013-03-03 10:08:00,29.4,16.1,30.15,SSW,207,0.0,1.0,57,0.00,,CLR,0.00,VWS V14.01,2013-03-03 16:08:00,
2013-03-03 10:09:00,29.4,15.7,30.15,SSW,207,0.0,1.0,56,0.00,,CLR,0.00,VWS V14.01,2013-03-03 16:09:00,
2013-03-03 10:11:00,29.7,16.8,30.15,West,275,0.0,1.0,58,0.00,,CLR,0.00,VWS V14.01,2013-03-03 16:11:00,
2013-03-03 10:13:00,29.7,16.8,30.15,WSW,254,0.0,1.0,58,0.00,,CLR,0.00,VWS V14.01,2013-03-03 16:13:00,
2013-03-03 10:14:00,29.7,17.1,30.15,WSW,254,0.0,1.0,59,0.00,,CLR,0.00,VWS V14.01,2013-03-03 16:14:00,
2013-03-03 10:16:00,29.6,17.0,30.15,WSW,238,0.0,1.0,59,0.00,,CLR,0.00,VWS V14.01,2013-03-03 16:16:00,
2013-03-03 10:18:00,29.7,17.5,30.15,WSW,238,0.0,1.0,60,0.00,,CLR,0.00,VWS V14.01,2013-03-03 16:18:00,
2013-03-03 10:19:00,29.7,17.5,30.15,WSW,242,0.0,1.0,60,0.00,,CLR,0.00,VWS V14.01,2013-03-03 16:19:00,
2013-03-03 10:21:00,29.9,17.7,30.15,WSW,242,0.0,1.0,60,0.00,,CLR,0.00,VWS V14.01,2013-03-03 16:21:00,
2013-03-03 10:23:00,30.0,17.8,30.15,WSW,243,0.0,1.0,60,0.00,,CLR,0.00,VWS V14.01,2013-03-03 16:23:00,
2013-03-03 10:24:00,30.2,17.6,30.15,WSW,246,0.0,1.0,59,0.00,,CLR,0.00,VWS V14.01,2013-03-03 16:24:00,
2013-03-03 10:26:00,30.0,17.0,30.15,West,265,0.0,1.0,58,0.00,,CLR,0.00,VWS V14.01,2013-03-03 16:26:00,
2013-03-03 10:28:00,30.0,17.8,30.15,West,267,0.0,1.0,60,0.00,,CLR,0.00,VWS V14.01,2013-03-03 16:28:00,
2013-03-03 10:29:00,30.0,17.8,30.15,WNW,284,0.0,1.0,60,0.00,,CLR,0.00,VWS V14.01,2013-03-03 16:29:00,
2013-03-03 10:30:00,32.7,18.3,30.12,SSW,204,0.0,5.0,55,0.00,,OVC041,0.00,VWS V14.01,2013-03-03 16:30:00,
2013-03-03 10:31:00,30.3,17.7,30.15,WNW,284,0.0,0.0,59,0.00,,CLR,0.00,VWS V14.01,2013-03-03 16:31:00,
2013-03-03 11:00:00,33.1,16.5,30.11,West,275,2.0,7.0,50,0.00,,OVC041,0.00,VWS V14.01,2013-03-03 17:00:00,
2013-03-03 11:30:00,33.9,14.8,30.10,South,191,2.0,8.0,45,0.00,,OVC041,0.00,VWS V14.01,2013-03-03 17:30:00,
2013-03-03 12:00:00,34.2,14.1,30.09,South,186,1.0,5.0,43,0.00,,OVC041,0.00,VWS V14.01,2013-03-03 18:00:00,
2013-03-03 12:30:00,34.6,13.9,30.08,SW,234,4.0,5.0,42,0.00,,OVC041,0.00,VWS V14.01,2013-03-03 18:30:00,
2013-03-03 13:00:00,34.5,12.1,30.08,SW,215,2.0,5.0,39,0.00,,OVC041,0.00,VWS V14.01,2013-03-03 19:00:00,
2013-03-03 13:30:00,35.7,13.8,30.08,WSW,247,0.0,3.0,40,0.00,,OVC041,0.00,VWS V14.01,2013-03-03 19:30:00,
2013-03-03 14:00:00,35.1,14.3,30.07,SW,221,0.0,3.0,42,0.00,,OVC041,0.00,VWS V14.01,2013-03-03 20:00:00,
2013-03-03 14:30:00,35.5,15.2,30.06,SE,124,2.0,3.0,43,0.00,,OVC041,0.00,VWS V14.01,2013-03-03 20:30:00,
2013-03-03 15:00:00,35.4,15.7,30.05,ESE,105,0.0,3.0,44,0.00,,OVC041,0.00,VWS V14.01,2013-03-03 21:00:00,
2013-03-03 15:30:00,34.6,15.4,30.05,SE,143,0.0,5.0,45,0.00,,OVC041,0.00,VWS V14.01,2013-03-03 21:30:00,
2013-03-03 15:45:00,35.7,15.4,30.05,ESE,109,1.0,3.0,43,0.00,,CLR,0.00,VWS V14.01,2013-03-03 21:45:00,
2013-03-03 15:50:00,35.5,15.2,30.05,ESE,105,0.0,3.0,43,0.00,,OVC060,0.00,VWS V14.01,2013-03-03 21:50:00,
2013-03-03 15:51:00,35.5,15.2,30.05,ESE,105,0.0,3.0,43,0.00,,OVC060,0.00,VWS V14.01,2013-03-03 21:51:00,
2013-03-03 15:55:00,35.4,15.1,30.05,ESE,107,1.0,3.0,43,0.00,,OVC060,0.00,VWS V14.01,2013-03-03 21:55:00,
2013-03-03 15:56:00,35.4,15.1,30.05,ESE,107,0.0,3.0,43,0.00,,OVC060,0.00,VWS V14.01,2013-03-03 21:56:00,
2013-03-03 16:00:00,35.2,15.5,30.05,East,92,0.0,2.0,44,0.00,,OVC060,0.00,VWS V14.01,2013-03-03 22:00:00,
2013-03-03 16:01:00,35.2,15.5,30.05,East,92,0.0,2.0,44,0.00,,OVC060,0.00,VWS V14.01,2013-03-03 22:01:00,
2013-03-03 16:05:00,35.2,15.5,30.05,East,90,0.0,2.0,44,0.00,,OVC060,0.00,VWS V14.01,2013-03-03 22:05:00,
2013-03-03 16:06:00,35.2,15.5,30.05,East,90,0.0,2.0,44,0.00,,OVC060,0.00,VWS V14.01,2013-03-03 22:06:00,
2013-03-03 16:10:00,35.1,15.4,30.05,ESE,120,0.0,4.0,44,0.00,,OVC060,0.00,VWS V14.01,2013-03-03 22:10:00,
2013-03-03 16:11:00,35.1,14.9,30.05,ESE,119,0.0,4.0,43,0.00,,OVC060,0.00,VWS V14.01,2013-03-03 22:11:00,
2013-03-03 16:16:00,34.9,15.2,30.05,ESE,110,0.0,4.0,44,0.00,,OVC060,0.00,VWS V14.01,2013-03-03 22:16:00,
2013-03-03 16:21:00,34.9,15.2,30.05,ESE,111,0.0,4.0,44,0.00,,OVC060,0.00,VWS V14.01,2013-03-03 22:21:00,
2013-03-03 16:26:00,34.6,14.9,30.05,SSW,195,0.0,5.0,44,0.00,,OVC060,0.00,VWS V14.01,2013-03-03 22:26:00,
2013-03-03 16:27:00,34.6,15.5,30.05,SE,136,0.0,5.0,45,0.00,,OVC060,0.00,VWS V14.01,2013-03-03 22:27:00,
2013-03-03 16:30:00,33.9,13.8,30.05,SE,139,0.0,1.0,43,0.00,,OVC041,0.00,VWS V14.01,2013-03-03 22:30:00,
2013-03-03 16:31:00,34.6,15.5,30.05,SE,133,2.0,4.0,45,0.00,,OVC060,0.00,VWS V14.01,2013-03-03 22:31:00,
2013-03-03 16:32:00,34.5,15.4,30.05,SE,134,3.0,4.0,45,0.00,,OVC060,0.00,VWS V14.01,2013-03-03 22:32:00,
2013-03-03 16:36:00,34.3,15.2,30.05,SE,136,0.0,4.0,45,0.00,,OVC060,0.00,VWS V14.01,2013-03-03 22:36:00,
2013-03-03 16:37:00,34.3,15.2,30.05,SE,136,0.0,4.0,45,0.00,,OVC060,0.00,VWS V14.01,2013-03-03 22:37:00,
2013-03-03 16:41:00,34.3,15.7,30.05,SE,134,0.0,4.0,46,0.00,,OVC060,0.00,VWS V14.01,2013-03-03 22:41:00,
2013-03-03 16:42:00,34.3,15.2,30.05,SE,134,0.0,4.0,45,0.00,,OVC060,0.00,VWS V14.01,2013-03-03 22:42:00,
2013-03-03 16:46:00,34.3,15.2,30.05,ESE,123,0.0,4.0,45,0.00,,OVC110,0.00,VWS V14.01,2013-03-03 22:46:00,
2013-03-03 16:47:00,34.3,14.7,30.05,ESE,123,0.0,4.0,44,0.00,,OVC110,0.00,VWS V14.01,2013-03-03 22:47:00,
2013-03-03 16:51:00,34.2,15.1,30.05,SE,135,0.0,5.0,45,0.00,,OVC110,0.00,VWS V14.01,2013-03-03 22:51:00,
2013-03-03 16:52:00,34.2,15.1,30.05,SE,135,0.0,5.0,45,0.00,,OVC110,0.00,VWS V14.01,2013-03-03 22:52:00,
2013-03-03 16:56:00,34.2,15.1,30.05,SE,130,0.0,5.0,45,0.00,,OVC110,0.00,VWS V14.01,2013-03-03 22:56:00,
2013-03-03 16:57:00,34.2,15.6,30.05,SE,130,0.0,5.0,46,0.00,,OVC110,0.00,VWS V14.01,2013-03-03 22:57:00,
2013-03-03 17:00:00,33.7,15.1,30.05,SE,143,0.0,2.0,46,0.00,,OVC041,0.00,VWS V14.01,2013-03-03 23:00:00,
2013-03-03 17:01:00,34.3,14.7,30.05,SE,130,0.0,0.0,44,0.00,,OVC060,0.00,VWS V14.01,2013-03-03 23:01:00,
2013-03-03 17:02:00,34.3,14.7,30.05,SE,130,0.0,1.0,44,0.00,,OVC060,0.00,VWS V14.01,2013-03-03 23:02:00,
2013-03-03 17:06:00,34.2,14.1,30.05,SE,130,0.0,1.0,43,0.00,,OVC060,0.00,VWS V14.01,2013-03-03 23:06:00,
2013-03-03 17:07:00,34.2,14.1,30.05,SE,130,0.0,1.0,43,0.00,,OVC060,0.00,VWS V14.01,2013-03-03 23:07:00,
2013-03-03 17:08:00,34.2,14.1,30.05,SE,131,0.0,1.0,43,0.00,,OVC060,0.00,VWS V14.01,2013-03-03 23:08:00,
2013-03-03 17:11:00,34.0,13.9,30.05,SE,141,0.0,1.0,43,0.00,,OVC060,0.00,VWS V14.01,2013-03-03 23:11:00,
2013-03-03 17:12:00,34.0,13.9,30.05,SE,141,0.0,1.0,43,0.00,,OVC060,0.00,VWS V14.01,2013-03-03 23:12:00,
2013-03-03 17:13:00,34.0,13.9,30.05,SE,141,0.0,1.0,43,0.00,,OVC060,0.00,VWS V14.01,2013-03-03 23:13:00,
2013-03-03 17:16:00,34.0,13.9,30.05,SE,139,0.0,1.0,43,0.00,,OVC060,0.00,VWS V14.01,2013-03-03 23:16:00,
2013-03-03 17:17:00,34.0,13.9,30.05,SE,139,0.0,1.0,43,0.00,,OVC060,0.00,VWS V14.01,2013-03-03 23:17:00,
2013-03-03 17:18:00,34.0,13.9,30.05,SE,139,0.0,1.0,43,0.00,,OVC060,0.00,VWS V14.01,2013-03-03 23:18:00,
2013-03-03 17:21:00,34.0,13.9,30.05,SE,139,0.0,1.0,43,0.00,,OVC060,0.00,VWS V14.01,2013-03-03 23:21:00,
2013-03-03 17:22:00,34.0,13.9,30.05,SE,139,0.0,1.0,43,0.00,,OVC060,0.00,VWS V14.01,2013-03-03 23:22:00,
2013-03-03 17:23:00,34.0,13.9,30.05,SE,139,0.0,1.0,43,0.00,,OVC060,0.00,VWS V14.01,2013-03-03 23:23:00,
2013-03-03 17:26:00,34.0,14.4,30.05,SE,139,0.0,1.0,44,0.00,,OVC060,0.00,VWS V14.01,2013-03-03 23:26:00,
2013-03-03 17:28:00,33.9,13.8,30.05,SE,139,0.0,1.0,43,0.00,,OVC060,0.00,VWS V14.01,2013-03-03 23:28:00,
2013-03-03 17:30:00,32.8,16.7,30.05,SE,143,0.0,0.0,51,0.00,,OVC041,0.00,VWS V14.01,2013-03-03 23:30:00,
2013-03-03 17:31:00,33.9,14.3,30.05,SE,139,0.0,0.0,44,0.00,,OVC060,0.00,VWS V14.01,2013-03-03 23:31:00,
2013-03-03 17:32:00,33.9,14.3,30.05,SE,139,0.0,0.0,44,0.00,,OVC060,0.00,VWS V14.01,2013-03-03 23:32:00,
2013-03-03 17:33:00,33.9,14.3,30.05,SE,139,0.0,0.0,44,0.00,,OVC060,0.00,VWS V14.01,2013-03-03 23:33:00,
2013-03-03 17:37:00,33.9,14.8,30.05,SE,139,0.0,0.0,45,0.00,,OVC060,0.00,VWS V14.01,2013-03-03 23:37:00,
2013-03-03 17:38:00,33.9,14.3,30.05,SE,139,0.0,0.0,44,0.00,,OVC060,0.00,VWS V14.01,2013-03-03 23:38:00,
2013-03-03 17:42:00,33.9,14.8,30.05,SE,139,0.0,0.0,45,0.00,,OVC060,0.00,VWS V14.01,2013-03-03 23:42:00,
2013-03-03 17:43:00,33.9,14.8,30.05,SE,140,0.0,0.0,45,0.00,,OVC060,0.00,VWS V14.01,2013-03-03 23:43:00,
2013-03-03 17:47:00,33.9,15.3,30.05,SE,143,0.0,2.0,46,0.00,,OVC060,0.00,VWS V14.01,2013-03-03 23:47:00,
2013-03-03 17:48:00,33.9,15.3,30.05,SE,143,0.0,2.0,46,0.00,,OVC060,0.00,VWS V14.01,2013-03-03 23:48:00,
2013-03-03 17:52:00,33.9,15.8,30.05,SE,143,0.0,2.0,47,0.00,,OVC060,0.00,VWS V14.01,2013-03-03 23:52:00,
2013-03-03 17:53:00,33.7,15.6,30.05,SE,143,0.0,2.0,47,0.00,,OVC060,0.00,VWS V14.01,2013-03-03 23:53:00,
2013-03-03 17:57:00,33.7,15.1,30.05,SE,143,0.0,2.0,46,0.00,,OVC060,0.00,VWS V14.01,2013-03-03 23:57:00,
2013-03-03 17:58:00,33.7,15.1,30.05,SE,143,0.0,2.0,46,0.00,,OVC060,0.00,VWS V14.01,2013-03-03 23:58:00,
2013-03-03 18:00:00,32.0,17.2,30.05,SE,142,0.0,0.0,54,0.00,,OVC041,0.00,VWS V14.01,2013-03-04 00:00:00,
2013-03-03 18:02:00,33.6,15.0,30.05,SE,143,0.0,0.0,46,0.00,,OVC060,0.00,VWS V14.01,2013-03-04 00:02:00,
2013-03-03 18:03:00,33.6,15.5,30.05,SE,143,0.0,0.0,47,0.00,,OVC060,0.00,VWS V14.01,2013-03-04 00:03:00,
2013-03-03 18:07:00,33.4,15.8,30.05,SE,143,0.0,0.0,48,0.00,,OVC060,0.00,VWS V14.01,2013-03-04 00:07:00,
2013-03-03 18:08:00,33.4,15.8,30.05,SE,143,0.0,0.0,48,0.00,,OVC060,0.00,VWS V14.01,2013-03-04 00:08:00,
2013-03-03 18:09:00,33.4,15.8,30.05,SE,143,0.0,0.0,48,0.00,,OVC060,0.00,VWS V14.01,2013-03-04 00:09:00,
2013-03-03 18:12:00,33.3,15.7,30.05,SE,143,0.0,0.0,48,0.00,,OVC060,0.00,VWS V14.01,2013-03-04 00:12:00,
2013-03-03 18:13:00,33.3,15.7,30.05,SE,143,0.0,0.0,48,0.00,,OVC060,0.00,VWS V14.01,2013-03-04 00:13:00,
2013-03-03 18:14:00,33.3,15.7,30.05,SE,143,0.0,0.0,48,0.00,,OVC060,0.00,VWS V14.01,2013-03-04 00:14:00,
2013-03-03 18:17:00,33.3,16.2,30.06,SE,143,0.0,0.0,49,0.00,,OVC060,0.00,VWS V14.01,2013-03-04 00:17:00,
2013-03-03 18:18:00,33.3,16.2,30.06,SE,143,0.0,0.0,49,0.00,,OVC060,0.00,VWS V14.01,2013-03-04 00:18:00,
2013-03-03 18:19:00,33.1,16.0,30.06,SE,143,0.0,0.0,49,0.00,,OVC060,0.00,VWS V14.01,2013-03-04 00:19:00,
2013-03-03 18:22:00,33.1,16.5,30.06,SE,143,0.0,0.0,50,0.00,,OVC060,0.00,VWS V14.01,2013-03-04 00:22:00,
2013-03-03 18:23:00,33.1,16.5,30.06,SE,143,0.0,0.0,50,0.00,,OVC060,0.00,VWS V14.01,2013-03-04 00:23:00,
2013-03-03 18:24:00,33.0,16.4,30.06,SE,143,0.0,0.0,50,0.00,,OVC060,0.00,VWS V14.01,2013-03-04 00:24:00,
2013-03-03 18:27:00,32.8,16.2,30.06,SE,143,0.0,0.0,50,0.00,,OVC060,0.00,VWS V14.01,2013-03-04 00:27:00,
2013-03-03 18:28:00,32.8,16.2,30.06,SE,143,0.0,0.0,50,0.00,,OVC060,0.00,VWS V14.01,2013-03-04 00:28:00,
2013-03-03 18:29:00,32.8,16.2,30.05,SE,143,0.0,0.0,50,0.00,,OVC060,0.00,VWS V14.01,2013-03-04 00:29:00,
2013-03-03 18:30:00,31.7,18.6,30.05,SSE,148,0.0,2.0,58,0.00,,OVC041,0.00,VWS V14.01,2013-03-04 00:30:00,
2013-03-03 18:33:00,32.7,16.6,30.05,SE,143,0.0,0.0,51,0.00,,OVC060,0.00,VWS V14.01,2013-03-04 00:33:00,
2013-03-03 18:34:00,32.7,16.6,30.05,SE,143,0.0,0.0,51,0.00,,OVC060,0.00,VWS V14.01,2013-03-04 00:34:00,
2013-03-03 18:38:00,32.6,16.5,30.05,SE,143,0.0,0.0,51,0.00,,OVC060,0.00,VWS V14.01,2013-03-04 00:38:00,
2013-03-03 18:39:00,32.4,16.3,30.05,SE,143,0.0,0.0,51,0.00,,OVC060,0.00,VWS V14.01,2013-03-04 00:39:00,
2013-03-03 18:43:00,32.3,16.7,30.05,SE,143,0.0,0.0,52,0.00,,OVC060,0.00,VWS V14.01,2013-03-04 00:43:00,
2013-03-03 18:44:00,32.3,16.7,30.05,SE,143,0.0,0.0,52,0.00,,OVC060,0.00,VWS V14.01,2013-03-04 00:44:00,
2013-03-03 18:48:00,32.1,16.5,30.05,SE,143,0.0,0.0,52,0.00,,OVC060,0.00,VWS V14.01,2013-03-04 00:48:00,
2013-03-03 18:49:00,32.1,16.5,30.05,SE,142,0.0,0.0,52,0.00,,OVC060,0.00,VWS V14.01,2013-03-04 00:49:00,
2013-03-03 18:53:00,32.1,16.9,30.05,SE,142,0.0,0.0,53,0.00,,OVC060,0.00,VWS V14.01,2013-03-04 00:53:00,
2013-03-03 18:54:00,32.0,16.8,30.05,SE,142,0.0,0.0,53,0.00,,OVC060,0.00,VWS V14.01,2013-03-04 00:54:00,
2013-03-03 18:58:00,32.0,17.2,30.05,SE,142,0.0,0.0,54,0.00,,OVC060,0.00,VWS V14.01,2013-03-04 00:58:00,
2013-03-03 18:59:00,32.0,17.2,30.05,SE,142,0.0,0.0,54,0.00,,OVC060,0.00,VWS V14.01,2013-03-04 00:59:00,
2013-03-03 19:00:00,31.5,19.2,30.05,SE,135,0.0,2.0,60,0.00,,OVC041,0.00,VWS V14.01,2013-03-04 01:00:00,
2013-03-03 19:03:00,31.8,17.5,30.05,SE,142,0.0,0.0,55,0.00,,SCT060,0.00,VWS V14.01,2013-03-04 01:03:00,
2013-03-03 19:04:00,31.8,17.5,30.05,SE,142,0.0,0.0,55,0.00,,SCT060,0.00,VWS V14.01,2013-03-04 01:04:00,
2013-03-03 19:08:00,31.7,17.4,30.05,SE,142,0.0,0.0,55,0.00,,SCT060,0.00,VWS V14.01,2013-03-04 01:08:00,
2013-03-03 19:09:00,31.7,17.4,30.05,SE,142,0.0,0.0,55,0.00,,SCT060,0.00,VWS V14.01,2013-03-04 01:09:00,
2013-03-03 19:13:00,31.7,17.8,30.05,SE,142,0.0,0.0,56,0.00,,SCT060,0.00,VWS V14.01,2013-03-04 01:13:00,
2013-03-03 19:14:00,31.7,17.8,30.05,SE,142,0.0,0.0,56,0.00,,SCT060,0.00,VWS V14.01,2013-03-04 01:14:00,
2013-03-03 19:15:00,31.7,17.8,30.05,SE,142,0.0,1.0,56,0.00,,SCT060,0.00,VWS V14.01,2013-03-04 01:15:00,
2013-03-03 19:18:00,31.7,18.2,30.05,SE,142,0.0,1.0,57,0.00,,SCT060,0.00,VWS V14.01,2013-03-04 01:18:00,
2013-03-03 19:19:00,31.7,18.2,30.05,SE,142,0.0,1.0,57,0.00,,SCT060,0.00,VWS V14.01,2013-03-04 01:19:00,
2013-03-03 19:20:00,31.7,18.2,30.05,SE,142,0.0,1.0,57,0.00,,SCT060,0.00,VWS V14.01,2013-03-04 01:20:00,
2013-03-03 19:23:00,31.7,18.2,30.05,SE,142,0.0,1.0,57,0.00,,SCT060,0.00,VWS V14.01,2013-03-04 01:23:00,
2013-03-03 19:24:00,31.7,18.6,30.05,SSE,150,0.0,2.0,58,0.00,,SCT060,0.00,VWS V14.01,2013-03-04 01:24:00,
2013-03-03 19:25:00,31.7,18.6,30.05,SSE,150,0.0,2.0,58,0.00,,SCT060,0.00,VWS V14.01,2013-03-04 01:25:00,
2013-03-03 19:28:00,31.7,18.6,30.05,SSE,150,0.0,2.0,58,0.00,,SCT060,0.00,VWS V14.01,2013-03-04 01:28:00,
2013-03-03 19:30:00,31.7,18.6,30.05,SSE,148,0.0,0.0,58,0.00,,SCT060,0.00,VWS V14.01,2013-03-04 01:30:00,
2013-03-03 19:34:00,31.7,18.6,30.05,SSE,148,0.0,0.0,58,0.00,,SCT060,0.00,VWS V14.01,2013-03-04 01:34:00,
2013-03-03 19:35:00,31.7,18.6,30.05,SSE,148,0.0,0.0,58,0.00,,SCT060,0.00,VWS V14.01,2013-03-04 01:35:00,
2013-03-03 19:39:00,31.7,19.0,30.05,SSE,148,0.0,0.0,59,0.00,,SCT060,0.00,VWS V14.01,2013-03-04 01:39:00,
2013-03-03 19:40:00,31.7,19.0,30.05,SSE,149,0.0,0.0,59,0.00,,SCT060,0.00,VWS V14.01,2013-03-04 01:40:00,
2013-03-03 19:44:00,31.7,19.0,30.05,SSE,147,0.0,1.0,59,0.00,,SCT060,0.00,VWS V14.01,2013-03-04 01:44:00,
2013-03-03 19:45:00,31.7,19.0,30.05,SSE,148,0.0,1.0,59,0.00,,OVC060,0.00,VWS V14.01,2013-03-04 01:45:00,
2013-03-03 19:49:00,31.5,18.8,30.05,SSE,148,0.0,1.0,59,0.00,,OVC060,0.00,VWS V14.01,2013-03-04 01:49:00,
2013-03-03 19:50:00,31.5,19.2,30.05,SSE,148,0.0,1.0,60,0.00,,OVC060,0.00,VWS V14.01,2013-03-04 01:50:00,
2013-03-03 19:54:00,31.5,19.2,30.05,SSE,147,0.0,1.0,60,0.00,,OVC060,0.00,VWS V14.01,2013-03-04 01:54:00,
2013-03-03 19:55:00,31.5,19.2,30.05,SSE,147,0.0,1.0,60,0.00,,OVC060,0.00,VWS V14.01,2013-03-04 01:55:00,
2013-03-03 19:56:00,31.5,19.2,30.05,SE,138,1.0,1.0,60,0.00,,OVC060,0.00,VWS V14.01,2013-03-04 01:56:00,
2013-03-03 19:59:00,31.5,19.2,30.05,SE,136,0.0,2.0,60,0.00,,OVC060,0.00,VWS V14.01,2013-03-04 01:59:00,
2013-03-03 20:00:00,31.5,19.2,30.05,SE,134,0.0,1.0,60,0.00,,OVC060,0.00,VWS V14.01,2013-03-04 02:00:00,
2013-03-03 20:01:00,31.5,19.2,30.05,SE,134,0.0,1.0,60,0.00,,OVC060,0.00,VWS V14.01,2013-03-04 02:01:00,
2013-03-03 20:04:00,31.5,19.6,30.05,SE,134,1.0,3.0,61,0.00,,OVC060,0.00,VWS V14.01,2013-03-04 02:04:00,
2013-03-03 20:05:00,31.7,19.8,30.05,SE,135,0.0,3.0,61,0.00,,OVC060,0.00,VWS V14.01,2013-03-04 02:05:00,
2013-03-03 20:06:00,31.7,19.8,30.05,SE,135,0.0,3.0,61,0.00,,OVC060,0.00,VWS V14.01,2013-03-04 02:06:00,
2013-03-03 20:09:00,31.5,19.6,30.05,SE,136,0.0,3.0,61,0.00,,OVC060,0.00,VWS V14.01,2013-03-04 02:09:00,
2013-03-03 20:10:00,31.5,20.0,30.05,SE,135,0.0,3.0,62,0.00,,OVC060,0.00,VWS V14.01,2013-03-04 02:10:00,
2013-03-03 20:11:00,31.5,20.0,30.05,SE,135,0.0,3.0,62,0.00,,OVC060,0.00,VWS V14.01,2013-03-04 02:11:00,
2013-03-03 20:15:00,31.5,20.0,30.05,SE,136,0.0,3.0,62,0.00,,OVC060,0.00,VWS V14.01,2013-03-04 02:15:00,
2013-03-03 20:16:00,31.5,20.0,30.05,SE,134,0.0,3.0,62,0.00,,OVC060,0.00,VWS V14.01,2013-03-04 02:16:00,
2013-03-03 20:20:00,31.4,19.9,30.05,SE,124,0.0,3.0,62,0.00,,OVC060,0.00,VWS V14.01,2013-03-04 02:20:00,
2013-03-03 20:21:00,31.4,19.9,30.05,SE,124,0.0,3.0,62,0.00,,OVC060,0.00,VWS V14.01,2013-03-04 02:21:00,
2013-03-03 20:25:00,31.4,19.5,30.05,ESE,110,0.0,3.0,61,0.00,,OVC060,0.00,VWS V14.01,2013-03-04 02:25:00,
2013-03-03 20:26:00,31.4,19.5,30.05,ESE,110,0.0,3.0,61,0.00,,OVC060,0.00,VWS V14.01,2013-03-04 02:26:00,
2013-03-03 20:30:00,31.4,18.7,30.03,East,90,0.0,4.0,59,0.00,,OVC041,0.00,VWS V14.01,2013-03-04 02:30:00,
2013-03-03 20:31:00,31.4,19.5,30.05,ESE,111,0.0,0.0,61,0.00,,OVC060,0.00,VWS V14.01,2013-03-04 02:31:00,
2013-03-03 20:36:00,31.4,19.1,30.05,ESE,111,0.0,1.0,60,0.00,,OVC060,0.00,VWS V14.01,2013-03-04 02:36:00,
2013-03-03 20:41:00,31.4,18.7,30.05,ESE,114,0.0,1.0,59,0.00,,OVC060,0.00,VWS V14.01,2013-03-04 02:41:00,
2013-03-03 20:46:00,31.4,19.1,30.05,ESE,115,0.0,1.0,60,0.00,,OVC060,0.00,VWS V14.01,2013-03-04 02:46:00,
2013-03-03 20:47:00,31.4,19.1,30.05,ESE,115,0.0,3.0,60,0.00,,OVC060,0.00,VWS V14.01,2013-03-04 02:47:00,
2013-03-03 20:51:00,31.4,19.1,30.05,ESE,115,0.0,3.0,60,0.00,,OVC060,0.00,VWS V14.01,2013-03-04 02:51:00,
2013-03-03 20:52:00,31.4,19.1,30.05,ESE,115,0.0,3.0,60,0.00,,OVC060,0.00,VWS V14.01,2013-03-04 02:52:00,
2013-03-03 20:56:00,31.4,19.5,30.05,ESE,115,0.0,3.0,61,0.00,,OVC060,0.00,VWS V14.01,2013-03-04 02:56:00,
2013-03-03 20:57:00,31.2,19.7,30.05,ESE,115,1.0,3.0,62,0.00,,OVC060,0.00,VWS V14.01,2013-03-04 02:57:00,
2013-03-03 21:00:00,31.8,18.3,30.04,SE,132,0.0,3.0,57,0.00,,OVC041,0.00,VWS V14.01,2013-03-04 03:00:00,
2013-03-03 21:01:00,31.2,19.7,30.05,ESE,115,0.0,0.0,62,0.00,,BKN060,0.00,VWS V14.01,2013-03-04 03:01:00,
2013-03-03 21:02:00,31.2,19.7,30.05,ESE,115,0.0,0.0,62,0.00,,BKN060,0.00,VWS V14.01,2013-03-04 03:02:00,
2013-03-03 21:06:00,31.2,19.7,30.05,ESE,117,0.0,4.0,62,0.00,,BKN060,0.00,VWS V14.01,2013-03-04 03:06:00,
2013-03-03 21:07:00,31.2,19.7,30.05,ESE,117,0.0,4.0,62,0.00,,BKN060,0.00,VWS V14.01,2013-03-04 03:07:00,
2013-03-03 21:11:00,31.1,20.0,30.05,ESE,114,0.0,4.0,63,0.00,,BKN060,0.00,VWS V14.01,2013-03-04 03:11:00,
2013-03-03 21:12:00,31.1,20.0,30.05,ESE,114,0.0,4.0,63,0.00,,BKN060,0.00,VWS V14.01,2013-03-04 03:12:00,
2013-03-03 21:13:00,31.1,20.0,30.05,ESE,114,0.0,4.0,63,0.00,,BKN060,0.00,VWS V14.01,2013-03-04 03:13:00,
2013-03-03 21:16:00,31.1,20.0,30.04,ESE,111,0.0,4.0,63,0.00,,BKN060,0.00,VWS V14.01,2013-03-04 03:16:00,
2013-03-03 21:17:00,31.1,20.0,30.04,East,88,2.0,4.0,63,0.00,,BKN060,0.00,VWS V14.01,2013-03-04 03:17:00,
2013-03-03 21:18:00,31.1,19.6,30.04,East,85,0.0,4.0,62,0.00,,BKN060,0.00,VWS V14.01,2013-03-04 03:18:00,
2013-03-03 21:21:00,31.2,19.3,30.04,East,86,0.0,4.0,61,0.00,,BKN060,0.00,VWS V14.01,2013-03-04 03:21:00,
2013-03-03 21:22:00,31.2,19.3,30.04,East,86,0.0,4.0,61,0.00,,BKN060,0.00,VWS V14.01,2013-03-04 03:22:00,
2013-03-03 21:23:00,31.2,19.3,30.04,East,86,0.0,4.0,61,0.00,,BKN060,0.00,VWS V14.01,2013-03-04 03:23:00,
2013-03-03 21:27:00,31.4,19.1,30.04,East,86,0.0,4.0,60,0.00,,BKN060,0.00,VWS V14.01,2013-03-04 03:27:00,
2013-03-03 21:28:00,31.4,18.7,30.04,East,90,0.0,4.0,59,0.00,,BKN060,0.00,VWS V14.01,2013-03-04 03:28:00,
2013-03-03 21:29:00,31.4,18.7,30.03,East,90,0.0,4.0,59,0.00,,BKN060,0.00,VWS V14.01,2013-03-04 03:29:00,
2013-03-03 21:30:00,31.8,19.1,30.03,SE,138,1.0,5.0,59,0.00,,OVC041,0.00,VWS V14.01,2013-03-04 03:30:00,
2013-03-03 21:32:00,31.5,18.8,30.03,East,90,0.0,0.0,59,0.00,,BKN060,0.00,VWS V14.01,2013-03-04 03:32:00,
2013-03-03 21:33:00,31.5,18.8,30.03,East,90,0.0,1.0,59,0.00,,BKN060,0.00,VWS V14.01,2013-03-04 03:33:00,
2013-03-03 21:34:00,31.5,18.4,30.03,East,90,0.0,1.0,58,0.00,,BKN060,0.00,VWS V14.01,2013-03-04 03:34:00,
2013-03-03 21:37:00,31.5,18.4,30.03,East,90,0.0,3.0,58,0.00,,BKN060,0.00,VWS V14.01,2013-03-04 03:37:00,
2013-03-03 21:38:00,31.5,18.4,30.03,East,90,0.0,3.0,58,0.00,,BKN060,0.00,VWS V14.01,2013-03-04 03:38:00,
2013-03-03 21:39:00,31.5,18.4,30.03,East,90,0.0,3.0,58,0.00,,BKN060,0.00,VWS V14.01,2013-03-04 03:39:00,
2013-03-03 21:42:00,31.7,18.2,30.03,ESE,119,0.0,3.0,57,0.00,,BKN060,0.00,VWS V14.01,2013-03-04 03:42:00,
2013-03-03 21:43:00,31.7,18.2,30.03,ESE,119,0.0,3.0,57,0.00,,BKN060,0.00,VWS V14.01,2013-03-04 03:43:00,
2013-03-03 21:44:00,31.7,17.8,30.04,ESE,119,0.0,3.0,56,0.00,,BKN060,0.00,VWS V14.01,2013-03-04 03:44:00,
2013-03-03 21:48:00,31.8,18.3,30.04,ESE,119,0.0,3.0,57,0.00,,OVC060,0.00,VWS V14.01,2013-03-04 03:48:00,
2013-03-03 21:49:00,31.8,18.3,30.04,ESE,118,0.0,3.0,57,0.00,,OVC060,0.00,VWS V14.01,2013-03-04 03:49:00,
2013-03-03 21:53:00,31.8,18.7,30.04,ESE,118,0.0,3.0,58,0.00,,OVC060,0.00,VWS V14.01,2013-03-04 03:53:00,
2013-03-03 21:54:00,31.8,18.7,30.04,ESE,118,0.0,3.0,58,0.00,,OVC060,0.00,VWS V14.01,2013-03-04 03:54:00,
2013-03-03 21:55:00,31.8,18.7,30.04,ESE,119,0.0,3.0,58,0.00,,OVC060,0.00,VWS V14.01,2013-03-04 03:55:00,
2013-03-03 21:58:00,31.8,18.3,30.04,SE,130,0.0,3.0,57,0.00,,OVC060,0.00,VWS V14.01,2013-03-04 03:58:00,
2013-03-03 21:59:00,31.8,18.3,30.04,SE,132,2.0,3.0,57,0.00,,OVC060,0.00,VWS V14.01,2013-03-04 03:59:00,
2013-03-03 22:00:00,31.8,18.3,30.04,SE,132,0.0,0.0,57,0.00,,OVC060,0.00,VWS V14.01,2013-03-04 04:00:00,
2013-03-03 22:03:00,31.8,18.7,30.04,SE,140,4.0,4.0,58,0.00,,OVC060,0.00,VWS V14.01,2013-03-04 04:03:00,
2013-03-03 22:04:00,31.8,18.3,30.04,SE,128,3.0,4.0,57,0.00,,OVC060,0.00,VWS V14.01,2013-03-04 04:04:00,
2013-03-03 22:05:00,31.8,18.3,30.04,SE,125,1.0,5.0,57,0.00,,OVC060,0.00,VWS V14.01,2013-03-04 04:05:00,
2013-03-03 22:08:00,31.8,18.7,30.04,ESE,119,1.0,5.0,58,0.00,,OVC060,0.00,VWS V14.01,2013-03-04 04:08:00,
2013-03-03 22:09:00,31.8,18.7,30.04,SE,127,0.0,5.0,58,0.00,,OVC060,0.00,VWS V14.01,2013-03-04 04:09:00,
2013-03-03 22:10:00,31.8,18.7,30.04,ESE,121,0.0,5.0,58,0.00,,OVC060,0.00,VWS V14.01,2013-03-04 04:10:00,
2013-03-03 22:13:00,31.8,18.7,30.04,SE,131,0.0,5.0,58,0.00,,OVC060,0.00,VWS V14.01,2013-03-04 04:13:00,
2013-03-03 22:14:00,31.8,18.7,30.04,SE,131,0.0,5.0,58,0.00,,OVC060,0.00,VWS V14.01,2013-03-04 04:14:00,
2013-03-03 22:15:00,31.8,19.1,30.04,SE,135,0.0,5.0,59,0.00,,OVC060,0.00,VWS V14.01,2013-03-04 04:15:00,
2013-03-03 22:19:00,31.8,19.1,30.04,SE,125,0.0,5.0,59,0.00,,OVC060,0.00,VWS V14.01,2013-03-04 04:19:00,
2013-03-03 22:20:00,31.8,19.1,30.04,SE,138,0.0,5.0,59,0.00,,OVC060,0.00,VWS V14.01,2013-03-04 04:20:00,
2013-03-03 22:24:00,31.8,18.7,30.04,ESE,121,3.0,5.0,58,0.00,,OVC060,0.00,VWS V14.01,2013-03-04 04:24:00,
2013-03-03 22:25:00,31.8,18.7,30.04,ESE,121,0.0,5.0,58,0.00,,OVC060,0.00,VWS V14.01,2013-03-04 04:25:00,
2013-03-03 22:29:00,31.8,19.1,30.03,SE,138,2.0,5.0,59,0.00,,OVC060,0.00,VWS V14.01,2013-03-04 04:29:00,
2013-03-03 22:30:00,31.8,19.1,30.03,SE,138,0.0,1.0,59,0.00,,OVC060,0.00,VWS V14.01,2013-03-04 04:30:00,
2013-03-03 22:31:00,31.8,19.1,30.03,SE,124,1.0,5.0,59,0.00,,OVC060,0.00,VWS V14.01,2013-03-04 04:31:00,
2013-03-03 22:34:00,31.8,19.1,30.03,ESE,121,3.0,5.0,59,0.00,,OVC060,0.00,VWS V14.01,2013-03-04 04:34:00,
2013-03-03 22:35:00,31.8,19.1,30.03,SSE,154,3.0,5.0,59,0.00,,OVC060,0.00,VWS V14.01,2013-03-04 04:35:00,
2013-03-03 22:36:00,31.8,19.1,30.03,ESE,117,0.0,5.0,59,0.00,,OVC060,0.00,VWS V14.01,2013-03-04 04:36:00,
2013-03-03 22:39:00,31.8,18.7,30.03,SSE,148,0.0,5.0,58,0.00,,OVC060,0.00,VWS V14.01,2013-03-04 04:39:00,
2013-03-03 22:40:00,31.8,18.7,30.03,SE,127,0.0,5.0,58,0.00,,OVC060,0.00,VWS V14.01,2013-03-04 04:40:00,
2013-03-03 22:41:00,31.8,19.1,30.03,ESE,117,0.0,5.0,59,0.00,,OVC060,0.00,VWS V14.01,2013-03-04 04:41:00,
2013-03-03 22:44:00,31.8,19.1,30.03,ESE,114,0.0,5.0,59,0.00,,OVC060,0.00,VWS V14.01,2013-03-04 04:44:00,
2013-03-03 22:45:00,31.8,19.1,30.03,ESE,115,0.0,5.0,59,0.00,,OVC060,0.00,VWS V14.01,2013-03-04 04:45:00,
2013-03-03 22:46:00,31.8,19.1,30.03,ESE,121,0.0,5.0,59,0.00,,OVC050,0.00,VWS V14.01,2013-03-04 04:46:00,
2013-03-03 22:49:00,31.8,19.1,30.03,SE,125,0.0,5.0,59,0.00,,OVC050,0.00,VWS V14.01,2013-03-04 04:49:00,
2013-03-03 22:50:00,31.8,19.1,30.03,SE,125,0.0,5.0,59,0.00,,OVC050,0.00,VWS V14.01,2013-03-04 04:50:00,
2013-03-03 22:51:00,31.8,19.1,30.03,SE,125,0.0,5.0,59,0.00,,OVC050,0.00,VWS V14.01,2013-03-04 04:51:00,
2013-03-03 22:54:00,31.8,19.1,30.03,SE,124,0.0,5.0,59,0.00,,OVC050,0.00,VWS V14.01,2013-03-04 04:54:00,
2013-03-03 22:55:00,31.8,19.1,30.03,SE,124,0.0,5.0,59,0.00,,OVC050,0.00,VWS V14.01,2013-03-04 04:55:00,
2013-03-03 22:56:00,31.8,19.1,30.03,ESE,115,0.0,5.0,59,0.00,,OVC050,0.00,VWS V14.01,2013-03-04 04:56:00,
2013-03-03 23:00:00,31.8,19.1,30.03,ESE,121,0.0,0.0,59,0.00,,OVC050,0.00,VWS V14.01,2013-03-04 05:00:00,
2013-03-03 23:05:00,31.8,19.5,30.03,ESE,109,0.0,2.0,60,0.00,,OVC050,0.00,VWS V14.01,2013-03-04 05:05:00,
2013-03-03 23:10:00,31.8,19.5,30.03,SE,134,0.0,5.0,60,0.00,,OVC050,0.00,VWS V14.01,2013-03-04 05:10:00,
2013-03-03 23:15:00,32.0,20.1,30.04,ESE,119,0.0,5.0,61,0.00,,OVC050,0.00,VWS V14.01,2013-03-04 05:15:00,
2013-03-03 23:20:00,31.8,19.9,30.04,SE,129,0.0,5.0,61,0.00,,OVC050,0.00,VWS V14.01,2013-03-04 05:20:00,
2013-03-03 23:21:00,31.8,19.9,30.04,SE,129,0.0,5.0,61,0.00,,OVC050,0.00,VWS V14.01,2013-03-04 05:21:00,
2013-03-03 23:25:00,32.0,20.1,30.04,SE,132,0.0,5.0,61,0.00,,OVC050,0.00,VWS V14.01,2013-03-04 05:25:00,
2013-03-03 23:26:00,32.0,20.1,30.04,SE,132,0.0,5.0,61,0.00,,OVC050,0.00,VWS V14.01,2013-03-04 05:26:00,
2013-03-03 23:30:00,32.0,20.1,30.04,SE,138,0.0,0.0,61,0.00,,OVC050,0.00,VWS V14.01,2013-03-04 05:30:00,
2013-03-03 23:31:00,32.0,20.1,30.04,SE,138,0.0,0.0,61,0.00,,OVC050,0.00,VWS V14.01,2013-03-04 05:31:00,
2013-03-03 23:32:00,32.0,20.1,30.04,SE,139,0.0,0.0,61,0.00,,OVC050,0.00,VWS V14.01,2013-03-04 05:32:00,
2013-03-03 23:35:00,32.0,20.1,30.04,ESE,119,0.0,0.0,61,0.00,,OVC050,0.00,VWS V14.01,2013-03-04 05:35:00,
2013-03-03 23:36:00,32.0,20.1,30.04,SSE,159,0.0,1.0,61,0.00,,OVC050,0.00,VWS V14.01,2013-03-04 05:36:00,
2013-03-03 23:37:00,32.0,19.7,30.04,SSE,156,0.0,1.0,60,0.00,,OVC050,0.00,VWS V14.01,2013-03-04 05:37:00,
2013-03-03 23:40:00,32.1,19.4,30.04,South,173,0.0,6.0,59,0.00,,OVC050,0.00,VWS V14.01,2013-03-04 05:40:00,
2013-03-03 23:41:00,32.1,19.4,30.04,SSE,154,0.0,6.0,59,0.00,,OVC050,0.00,VWS V14.01,2013-03-04 05:41:00,
2013-03-03 23:42:00,32.1,19.8,30.04,SE,128,0.0,6.0,60,0.00,,OVC050,0.00,VWS V14.01,2013-03-04 05:42:00,
2013-03-03 23:45:00,32.1,19.8,30.04,ESE,111,0.0,6.0,60,0.00,,OVC050,0.00,VWS V14.01,2013-03-04 05:45:00,
2013-03-03 23:46:00,32.1,19.4,30.04,SSE,148,0.0,6.0,59,0.00,,OVC050,0.00,VWS V14.01,2013-03-04 05:46:00,
2013-03-03 23:47:00,32.1,19.4,30.04,SE,138,2.0,6.0,59,0.00,,OVC050,0.00,VWS V14.01,2013-03-04 05:47:00,
2013-03-03 23:50:00,32.1,19.4,30.04,SE,130,0.0,6.0,59,0.00,,OVC050,0.00,VWS V14.01,2013-03-04 05:50:00,
2013-03-03 23:51:00,32.1,19.4,30.04,SE,125,2.0,6.0,59,0.00,,OVC050,0.00,VWS V14.01,2013-03-04 05:51:00,
2013-03-03 23:53:00,32.1,19.8,30.04,SE,139,6.0,6.0,60,0.00,,OVC050,0.00,VWS V14.01,2013-03-04 05:53:00,
2013-03-03 23:55:00,32.1,19.8,30.04,SE,138,0.0,6.0,60,0.00,,OVC050,0.00,VWS V14.01,2013-03-04 05:55:00,
2013-03-03 23:56:00,32.1,19.8,30.04,SE,140,0.0,6.0,60,0.00,,OVC050,0.00,VWS V14.01,2013-03-04 05:56:00,
2013-03-03 23:58:00,32.1,19.8,30.04,ESE,119,0.0,6.0,60,0.00,,OVC050,0.00,VWS V14.01,2013-03-04 05:58:00,